M I D A S
Marine Information and Data Acquisition System
Tripno 1714 of the Zeeleeuw from 2009-06-23 06:43:27 to 2009-06-23 14:36:06
Back to CruiseResearch ActivitiesStationsMapUnderway DataData graphs

EquipmentUnitsComment
TimeDGPSUTC
LatitudeDGPSDM.mWGS84
LongitudeDGPSDM.mWGS84
TemperatureSBE03/SBE38deg celciusITS90
ConductivitySBE21S/mITS90
SalinitySBE21 Practical Salinity Units
ChlorophylAChelsea fluorimeterg/lCalibrated in Aceton
Missing or incorrect values are displayed as -999
Sea surface data collected by the RV Zeeleeuw from 2009-06-23 06:50:02 to 2009-06-23 14:40:53
                                                                                    Next 1000 lines
Time Latitude Longitude Temperature Conductivity Salinity ChlorophylA
2009-06-23 06:50:12 51°13.662 2°55.958 21.0609 0.062995 0.341798 0.53169
2009-06-23 06:50:17 51°13.663 2°55.959 21.0638 0.062995 0.341804 0.53169
2009-06-23 06:50:22 51°13.663 2°55.96 21.0719 0.062995 0.341816 0.53169
2009-06-23 06:50:27 51°13.662 2°55.959 21.0757 0.062995 0.341822 0.53169
2009-06-23 06:50:32 51°13.662 2°55.959 21.0789 0.062995 0.341828 0.53169
2009-06-23 06:50:37 51°13.661 2°55.959 21.0742 0.062995 0.341822 0.53169
2009-06-23 06:50:42 51°13.661 2°55.959 21.0745 0.062995 0.341822 0.53169
2009-06-23 06:50:47 51°13.661 2°55.959 21.0746 0.062995 0.341828 0.53169
2009-06-23 06:50:52 51°13.661 2°55.959 21.0792 0.062995 0.341828 0.53169
2009-06-23 06:50:57 51°13.661 2°55.96 21.0803 0.062995 0.341822 0.53169
2009-06-23 06:51:02 51°13.663 2°55.962 21.0852 0.062995 0.341822 0.53169
2009-06-23 06:51:07 51°13.662 2°55.961 21.0886 0.062995 0.341822 0.53169
2009-06-23 06:51:12 51°13.662 2°55.96 21.0963 0.062995 0.341822 0.53169
2009-06-23 06:51:17 51°13.661 2°55.959 21.098 0.062995 0.341822 0.53169
2009-06-23 06:51:22 51°13.662 2°55.96 21.0964 0.062995 0.341822 0.53169
2009-06-23 06:51:27 51°13.662 2°55.96 21.095 0.062995 0.341822 0.53169
2009-06-23 06:51:32 51°13.662 2°55.959 21.0959 0.062995 0.341828 0.53169
2009-06-23 06:51:37 51°13.662 2°55.959 21.0991 0.062995 0.341834 0.53169
2009-06-23 06:51:42 51°13.661 2°55.959 21.0966 0.062995 0.341834 0.53169
2009-06-23 06:51:47 51°13.662 2°55.959 21.0828 0.062995 0.34184 0.53169
2009-06-23 06:51:52 51°13.662 2°55.958 21.0479 0.062995 0.341846 0.53169
2009-06-23 06:51:57 51°13.662 2°55.957 21.0805 0.062995 0.341852 0.53169
2009-06-23 06:52:02 51°13.662 2°55.957 21.082 0.062995 0.341858 0.53169
2009-06-23 06:52:07 51°13.662 2°55.956 21.0536 0.062995 0.341858 0.53169
2009-06-23 06:52:12 51°13.663 2°55.956 21.079 0.062995 0.341858 0.53169
2009-06-23 06:52:16 51°13.663 2°55.955 21.0816 0.062995 0.341858 0.53169
2009-06-23 06:52:22 51°13.663 2°55.953 21.0818 0.062995 0.341858 0.53169
2009-06-23 06:52:27 51°13.664 2°55.953 21.0815 0.062995 0.341858 0.53169
2009-06-23 06:52:32 51°13.664 2°55.951 21.081 0.062995 0.341858 0.53169
2009-06-23 06:52:37 51°13.665 2°55.95 21.0811 0.062995 0.341864 0.53169
2009-06-23 06:52:42 51°13.665 2°55.949 21.0748 0.062995 0.341864 0.53169
2009-06-23 06:52:47 51°13.665 2°55.948 21.0625 0.062995 0.341864 0.53169
2009-06-23 06:52:52 51°13.666 2°55.947 21.0664 0.062995 0.341864 0.53169
2009-06-23 06:52:57 51°13.667 2°55.945 21.0722 0.062995 0.34187 0.496866
2009-06-23 06:53:02 51°13.668 2°55.943 21.0307 0.062995 0.34187 0.53169
2009-06-23 06:53:07 51°13.669 2°55.941 21.0729 0.062995 0.34187 0.53169
2009-06-23 06:53:12 51°13.67 2°55.938 21.0483 0.062995 0.34187 0.53169
2009-06-23 06:53:17 51°13.67 2°55.935 21.0389 0.062995 0.341875 0.496866
2009-06-23 06:53:22 51°13.671 2°55.932 21.0349 0.062995 0.341875 0.53169
2009-06-23 06:53:27 51°13.673 2°55.928 21.0599 0.062995 0.341881 0.53169
2009-06-23 06:53:32 51°13.674 2°55.924 21.079 0.062995 0.341887 0.53169
2009-06-23 06:53:37 51°13.676 2°55.919 21.0521 0.062995 0.341881 0.53169
2009-06-23 06:53:42 51°13.677 2°55.915 21.0608 0.062995 0.341881 0.53169
2009-06-23 06:53:47 51°13.679 2°55.91 21.0786 0.062995 0.341887 0.53169
2009-06-23 06:53:52 51°13.681 2°55.905 21.0821 0.062995 0.341893 0.496866
2009-06-23 06:53:57 51°13.684 2°55.899 21.0887 0.062995 0.341893 0.53169
2009-06-23 06:54:02 51°13.686 2°55.894 21.0858 0.062995 0.341893 0.53169
2009-06-23 06:54:07 51°13.688 2°55.888 21.0833 0.062995 0.341893 0.53169
2009-06-23 06:54:12 51°13.69 2°55.882 21.0794 0.062995 0.341893 0.53169
2009-06-23 06:54:17 51°13.692 2°55.875 21.0756 0.062995 0.341893 0.53169
2009-06-23 06:54:22 51°13.693 2°55.869 21.0868 0.062995 0.341899 0.53169
2009-06-23 06:54:27 51°13.695 2°55.862 21.0912 0.062995 0.341899 0.53169
2009-06-23 06:54:32 51°13.695 2°55.854 21.0927 0.062995 0.341899 0.53169
2009-06-23 06:54:37 51°13.696 2°55.847 21.0906 0.062995 0.341905 0.53169
2009-06-23 06:54:42 51°13.697 2°55.84 21.0898 0.062995 0.341911 0.53169
2009-06-23 06:54:47 51°13.698 2°55.832 21.0931 0.062995 0.341911 0.53169
2009-06-23 06:54:52 51°13.698 2°55.825 21.0913 0.062995 0.341911 0.53169
2009-06-23 06:54:57 51°13.699 2°55.817 21.0944 0.062995 0.341911 0.53169
2009-06-23 06:55:02 51°13.699 2°55.809 21.0922 0.062995 0.341917 0.53169
2009-06-23 06:55:07 51°13.7 2°55.802 21.0944 0.062995 0.341917 0.53169
2009-06-23 06:55:12 51°13.7 2°55.795 21.0942 0.062995 0.341917 0.53169
2009-06-23 06:55:17 51°13.7 2°55.788 21.0902 0.062995 0.341917 0.53169
2009-06-23 06:55:22 51°13.701 2°55.781 21.0876 0.062995 0.341923 0.53169
2009-06-23 06:55:27 51°13.701 2°55.775 21.0744 0.062995 0.341923 0.53169
2009-06-23 06:55:32 51°13.701 2°55.769 21.0754 0.062995 0.341923 0.53169
2009-06-23 06:55:36 51°13.701 2°55.765 21.0752 0.062995 0.341923 0.53169
2009-06-23 06:55:41 51°13.701 2°55.759 21.0901 0.062995 0.341923 0.53169
2009-06-23 06:55:46 51°13.701 2°55.754 21.0813 0.062995 0.341923 0.53169
2009-06-23 06:55:51 51°13.701 2°55.749 21.081 0.062995 0.341929 0.53169
2009-06-23 06:55:56 51°13.701 2°55.745 21.0811 0.062995 0.341923 0.53169
2009-06-23 06:56:00 51°13.7 2°55.743 21.0922 0.062995 0.341929 0.53169
2009-06-23 06:56:06 51°13.7 2°55.739 21.1003 0.062995 0.341923 0.53169
2009-06-23 06:56:11 51°13.701 2°55.738 21.1204 0.062995 0.341923 0.496866
2009-06-23 06:56:15 51°13.701 2°55.738 21.1324 0.062995 0.341923 0.496866
2009-06-23 06:56:20 51°13.702 2°55.738 21.1247 0.062995 0.341923 0.53169
2009-06-23 06:56:25 51°13.703 2°55.739 21.1228 0.062995 0.341923 0.53169
2009-06-23 06:56:30 51°13.704 2°55.74 21.1106 0.062995 0.341929 0.53169
2009-06-23 06:56:35 51°13.705 2°55.742 21.1004 0.062995 0.341935 0.496866
2009-06-23 06:56:40 51°13.706 2°55.743 21.0934 0.062995 0.341935 0.496866
2009-06-23 06:56:44 51°13.707 2°55.743 21.0961 0.062995 0.341935 0.496866
2009-06-23 06:56:49 51°13.708 2°55.744 21.0862 0.062995 0.341941 0.53169
2009-06-23 06:56:54 51°13.709 2°55.745 21.0861 0.062995 0.341941 0.496866
2009-06-23 06:56:59 51°13.709 2°55.745 21.0879 0.062995 0.341947 0.53169
2009-06-23 06:57:04 51°13.709 2°55.745 21.083 0.062995 0.341947 0.53169
2009-06-23 06:57:08 51°13.709 2°55.745 21.0616 0.062995 0.341947 0.53169
2009-06-23 06:57:13 51°13.709 2°55.744 21.0792 0.062995 0.341941 0.53169
2009-06-23 06:57:18 51°13.709 2°55.743 21.0811 0.062995 0.341941 0.53169
2009-06-23 06:57:24 51°13.708 2°55.743 21.0908 0.062995 0.341935 0.53169
2009-06-23 06:57:28 51°13.708 2°55.742 21.0948 0.062995 0.341935 0.53169
2009-06-23 06:57:33 51°13.708 2°55.742 21.101 0.062995 0.341935 0.53169
2009-06-23 06:57:38 51°13.708 2°55.741 21.1006 0.062995 0.341935 0.53169
2009-06-23 06:57:44 51°13.709 2°55.741 21.1193 0.062995 0.341935 0.53169
2009-06-23 06:57:48 51°13.709 2°55.74 21.1213 0.062995 0.341941 0.53169
2009-06-23 06:57:53 51°13.71 2°55.74 21.121 0.062995 0.341935 0.53169
2009-06-23 06:57:58 51°13.712 2°55.739 21.1234 0.062995 0.341941 0.53169
2009-06-23 06:58:03 51°13.713 2°55.739 21.1246 0.062995 0.341941 0.53169
2009-06-23 06:58:08 51°13.715 2°55.738 21.1243 0.062995 0.341947 0.53169
2009-06-23 06:58:13 51°13.717 2°55.737 21.1296 0.062995 0.341947 0.53169
2009-06-23 06:58:18 51°13.719 2°55.736 21.131 0.062995 0.341953 0.53169
2009-06-23 06:58:23 51°13.721 2°55.734 21.1302 0.062995 0.341953 0.53169
2009-06-23 06:58:28 51°13.723 2°55.732 21.1299 0.062995 0.341959 0.53169
2009-06-23 06:58:33 51°13.726 2°55.73 21.1301 0.062995 0.341965 0.53169
2009-06-23 06:58:38 51°13.729 2°55.727 21.127 0.062995 0.341965 0.53169
2009-06-23 06:58:44 51°13.734 2°55.723 21.1232 0.062995 0.341965 0.53169
2009-06-23 06:58:48 51°13.737 2°55.719 21.1189 0.062995 0.341959 0.53169
2009-06-23 06:58:54 51°13.743 2°55.715 21.1149 0.062995 0.341959 0.496866
2009-06-23 06:58:58 51°13.747 2°55.711 21.1113 0.062995 0.341965 0.53169
2009-06-23 06:59:03 51°13.752 2°55.706 21.1121 0.062995 0.341965 0.53169
2009-06-23 06:59:08 51°13.758 2°55.701 21.1121 0.062995 0.341965 0.53169
2009-06-23 06:59:12 51°13.763 2°55.697 21.1085 0.062995 0.341965 0.53169
2009-06-23 06:59:19 51°13.771 2°55.688 21.1074 0.062995 0.341965 0.53169
2009-06-23 06:59:23 51°13.776 2°55.683 21.1057 0.062995 0.341971 0.53169
2009-06-23 06:59:28 51°13.783 2°55.677 21.1015 0.062995 0.341971 0.53169
2009-06-23 06:59:33 51°13.789 2°55.671 21.0997 0.062995 0.341977 0.53169
2009-06-23 06:59:38 51°13.796 2°55.665 21.1 0.062995 0.341977 0.53169
2009-06-23 06:59:43 51°13.803 2°55.659 21.0979 0.062995 0.341977 0.53169
2009-06-23 06:59:48 51°13.811 2°55.653 21.0994 0.062995 0.341977 0.53169
2009-06-23 06:59:54 51°13.82 2°55.646 21.1003 0.062995 0.341983 0.496866
2009-06-23 06:59:58 51°13.826 2°55.641 21.1044 0.062995 0.341983 0.53169
2009-06-23 07:00:03 51°13.833 2°55.635 21.1038 0.062995 0.341989 0.496866
2009-06-23 07:00:08 51°13.841 2°55.629 21.1075 0.062995 0.341989 0.496866
2009-06-23 07:00:13 51°13.849 2°55.622 21.1042 0.062995 0.341989 0.53169
2009-06-23 07:00:18 51°13.857 2°55.616 21.1026 0.062995 0.341995 0.496866
2009-06-23 07:00:23 51°13.865 2°55.61 21.1006 0.062995 0.342001 0.53169
2009-06-23 07:00:28 51°13.873 2°55.603 21.1035 0.062995 0.342007 0.53169
2009-06-23 07:00:33 51°13.882 2°55.596 21.1049 0.062995 0.342013 0.53169
2009-06-23 07:00:38 51°13.89 2°55.589 21.101 0.062995 0.342013 0.53169
2009-06-23 07:00:43 51°13.898 2°55.583 21.0975 0.062995 0.342013 0.53169
2009-06-23 07:00:48 51°13.906 2°55.576 21.095 0.062995 0.342019 0.53169
2009-06-23 07:00:53 51°13.914 2°55.57 21.0926 0.062995 0.342019 0.53169
2009-06-23 07:00:59 51°13.924 2°55.563 21.1035 0.062995 0.342019 0.53169
2009-06-23 07:01:03 51°13.931 2°55.558 21.1133 0.062995 0.342019 0.53169
2009-06-23 07:01:08 51°13.939 2°55.551 21.1044 0.062995 0.342019 0.53169
2009-06-23 07:01:13 51°13.947 2°55.545 21.0985 0.062995 0.342025 0.53169
2009-06-23 07:01:18 51°13.956 2°55.539 21.1048 0.062995 0.342025 0.53169
2009-06-23 07:01:23 51°13.964 2°55.533 21.1104 0.062995 0.342025 0.53169
2009-06-23 07:01:28 51°13.972 2°55.526 21.1065 0.062995 0.342025 0.53169
2009-06-23 07:01:32 51°13.979 2°55.521 21.1096 0.062995 0.342031 0.53169
2009-06-23 07:01:39 51°13.991 2°55.511 21.1049 0.062995 0.342031 0.53169
2009-06-23 07:01:43 51°13.998 2°55.505 21.1056 0.062995 0.342031 0.53169
2009-06-23 07:01:48 51°14.006 2°55.499 21.1028 0.062995 0.342037 0.53169
2009-06-23 07:01:53 51°14.015 2°55.492 21.1021 0.062995 0.342043 0.53169
2009-06-23 07:01:58 51°14.023 2°55.485 21.0949 0.062995 0.342043 0.53169
2009-06-23 07:02:03 51°14.031 2°55.479 21.1023 0.062995 0.342049 0.53169
2009-06-23 07:02:08 51°14.039 2°55.473 21.1208 0.062995 0.342049 0.53169
2009-06-23 07:02:13 51°14.047 2°55.468 21.1284 0.062995 0.342049 0.53169
2009-06-23 07:02:18 51°14.054 2°55.462 21.1178 0.062995 0.342049 0.53169
2009-06-23 07:02:24 51°14.063 2°55.455 21.1098 0.062995 0.342049 0.53169
2009-06-23 07:02:28 51°14.069 2°55.451 21.1215 0.062995 0.342049 0.53169
2009-06-23 07:02:33 51°14.077 2°55.445 21.1289 0.062995 0.342055 0.53169
2009-06-23 07:02:38 51°14.085 2°55.438 21.1177 0.062995 0.342055 0.53169
2009-06-23 07:02:43 51°14.092 2°55.433 21.1127 0.062995 0.342055 0.53169
2009-06-23 07:02:48 51°14.099 2°55.427 21.1118 0.062995 0.342055 0.53169
2009-06-23 07:02:53 51°14.107 2°55.422 21.1149 0.062995 0.342061 0.53169
2009-06-23 07:02:58 51°14.114 2°55.416 21.1245 0.062995 0.342061 0.53169
2009-06-23 07:03:03 51°14.121 2°55.411 21.134 0.062995 0.342067 0.53169
2009-06-23 07:03:08 51°14.129 2°55.406 21.1376 0.062995 0.342067 0.496866
2009-06-23 07:03:13 51°14.136 2°55.4 21.1288 0.062995 0.342067 0.496866
2009-06-23 07:03:18 51°14.144 2°55.394 21.1293 0.062995 0.342073 0.53169
2009-06-23 07:03:23 51°14.152 2°55.388 21.1246 0.062995 0.342073 0.53169
2009-06-23 07:03:28 51°14.159 2°55.382 21.1288 0.062995 0.342073 0.53169
2009-06-23 07:03:33 51°14.167 2°55.376 21.1306 0.062995 0.342073 0.53169
2009-06-23 07:03:38 51°14.175 2°55.369 21.1176 0.062995 0.342073 0.53169
2009-06-23 07:03:43 51°14.182 2°55.362 21.1289 0.062995 0.342079 0.53169
2009-06-23 07:03:48 51°14.19 2°55.355 21.1321 0.062995 0.342079 0.53169
2009-06-23 07:03:53 51°14.197 2°55.347 21.1353 0.062995 0.342085 0.53169
2009-06-23 07:03:58 51°14.205 2°55.339 21.1337 0.062995 0.342085 0.53169
2009-06-23 07:04:04 51°14.214 2°55.329 21.1288 0.062995 0.342091 0.53169
2009-06-23 07:04:08 51°14.219 2°55.322 21.1052 0.062995 0.342091 0.53169
2009-06-23 07:04:13 51°14.226 2°55.313 21.1146 0.062995 0.342091 0.53169
2009-06-23 07:04:18 51°14.233 2°55.305 21.1157 0.062995 0.342091 0.496866
2009-06-23 07:04:24 51°14.242 2°55.293 21.1432 0.062995 0.342097 0.53169
2009-06-23 07:04:28 51°14.247 2°55.286 21.1347 0.062995 0.342097 0.53169
2009-06-23 07:04:34 51°14.256 2°55.274 21.1411 0.062995 0.342103 0.53169
2009-06-23 07:04:38 51°14.261 2°55.266 21.1241 0.062995 0.342103 0.53169
2009-06-23 07:04:43 51°14.268 2°55.256 21.1193 0.062995 0.342103 0.53169
2009-06-23 07:04:48 51°14.274 2°55.244 21.112 0.062995 0.342103 0.53169
2009-06-23 07:04:54 51°14.282 2°55.23 21.1005 0.062995 0.342109 0.53169
2009-06-23 07:04:58 51°14.287 2°55.22 21.1022 0.062995 0.342109 0.53169
2009-06-23 07:05:03 51°14.294 2°55.207 21.1301 0.062995 0.342103 0.53169
2009-06-23 07:05:08 51°14.301 2°55.194 21.1396 0.062995 0.342109 0.53169
2009-06-23 07:05:13 51°14.307 2°55.18 21.1168 0.062995 0.342109 0.53169
2009-06-23 07:05:18 51°14.314 2°55.166 21.1053 0.062995 0.342109 0.53169
2009-06-23 07:05:23 51°14.321 2°55.151 21.0887 0.062995 0.342115 0.53169
2009-06-23 07:05:28 51°14.327 2°55.135 21.1106 0.062995 0.342109 0.496866
2009-06-23 07:05:34 51°14.336 2°55.116 21.0941 0.062995 0.342115 0.53169
2009-06-23 07:05:38 51°14.342 2°55.103 21.0684 0.062995 0.342115 0.53169
2009-06-23 07:05:43 51°14.35 2°55.087 21.0929 0.062995 0.342115 0.53169
2009-06-23 07:05:48 51°14.358 2°55.07 21.067 0.062995 0.342121 0.53169
2009-06-23 07:05:53 51°14.367 2°55.054 21.0626 0.062995 0.342121 0.53169
2009-06-23 07:05:59 51°14.378 2°55.035 21.1096 0.062995 0.342133 0.53169
2009-06-23 07:06:03 51°14.386 2°55.022 21.1182 0.062995 0.342145 0.53169
2009-06-23 07:06:08 51°14.395 2°55.005 21.0771 0.062995 0.342145 0.53169
2009-06-23 07:06:13 51°14.405 2°54.988 21.0809 0.062995 0.342145 0.53169
2009-06-23 07:06:19 51°14.417 2°54.968 21.0717 0.062995 0.342145 0.53169
2009-06-23 07:06:23 51°14.425 2°54.954 21.0836 0.062995 0.342139 0.53169
2009-06-23 07:06:28 51°14.436 2°54.938 21.0887 0.062995 0.342139 0.53169
2009-06-23 07:06:33 51°14.446 2°54.921 21.0758 0.062995 0.342145 0.53169
2009-06-23 07:06:39 51°14.459 2°54.9 21.0733 0.062995 0.342139 0.53169
2009-06-23 07:06:44 51°14.47 2°54.884 21.0879 0.062995 0.342139 0.53169
2009-06-23 07:06:48 51°14.479 2°54.871 21.0761 0.062995 0.342139 0.53169
2009-06-23 07:06:53 51°14.491 2°54.855 21.0784 0.062995 0.342139 0.53169
2009-06-23 07:06:58 51°14.503 2°54.84 21.0701 0.062995 0.342145 0.53169
2009-06-23 07:07:03 51°14.516 2°54.825 21.0894 0.062995 0.342151 0.53169
2009-06-23 07:07:08 51°14.529 2°54.811 21.0822 0.062995 0.342163 0.53169
2009-06-23 07:07:14 51°14.544 2°54.793 21.0749 0.062995 0.342163 0.53169
2009-06-23 07:07:18 51°14.554 2°54.782 21.091 0.062995 0.342169 0.53169
2009-06-23 07:07:23 51°14.567 2°54.769 21.1072 0.062995 0.342175 0.53169
2009-06-23 07:07:28 51°14.581 2°54.756 21.0905 0.062995 0.342175 0.53169
2009-06-23 07:07:33 51°14.594 2°54.743 21.0565 0.062995 0.342181 0.53169
2009-06-23 07:07:38 51°14.607 2°54.729 21.0735 0.062995 0.342181 0.53169
2009-06-23 07:07:43 51°14.62 2°54.717 21.0991 0.062995 0.342181 0.53169
2009-06-23 07:07:48 51°14.634 2°54.704 21.0855 0.062995 0.342181 0.53169
2009-06-23 07:07:53 51°14.647 2°54.691 21.04 0.062995 0.342187 0.53169
2009-06-23 07:07:59 51°14.663 2°54.676 21.0812 0.062995 0.342181 0.496866
2009-06-23 07:08:03 51°14.675 2°54.667 21.0663 0.062995 0.342193 0.53169
2009-06-23 07:08:08 51°14.689 2°54.655 21.0875 0.062995 0.342193 0.53169
2009-06-23 07:08:13 51°14.703 2°54.644 21.082 0.062995 0.342193 0.53169
2009-06-23 07:08:18 51°14.717 2°54.633 21.0888 0.062995 0.342199 0.53169
2009-06-23 07:08:23 51°14.731 2°54.622 21.0666 0.062995 0.342199 0.53169
2009-06-23 07:08:28 51°14.745 2°54.611 21.0913 0.062995 0.342199 0.53169
2009-06-23 07:08:33 51°14.759 2°54.6 21.0673 0.062995 0.342199 0.53169
2009-06-23 07:08:38 51°14.773 2°54.589 21.0702 0.062995 0.342205 0.53169
2009-06-23 07:08:44 51°14.79 2°54.576 21.0653 0.062995 0.342205 0.53169
2009-06-23 07:08:48 51°14.801 2°54.567 21.0703 0.062995 0.342205 0.53169
2009-06-23 07:08:53 51°14.815 2°54.556 21.0679 0.062995 0.342205 0.53169
2009-06-23 07:08:58 51°14.829 2°54.546 21.0804 0.062995 0.342205 0.53169
2009-06-23 07:09:04 51°14.846 2°54.533 21.0845 0.062995 0.342211 0.53169
2009-06-23 07:09:08 51°14.857 2°54.525 21.0793 0.062995 0.342211 0.53169
2009-06-23 07:09:13 51°14.871 2°54.515 21.0857 0.062995 0.342211 0.53169
2009-06-23 07:09:18 51°14.885 2°54.506 21.0675 0.062995 0.342211 0.53169
2009-06-23 07:09:23 51°14.898 2°54.496 21.077 0.062995 0.342211 0.53169
2009-06-23 07:09:28 51°14.913 2°54.486 21.0918 0.062995 0.342217 0.53169
2009-06-23 07:09:33 51°14.927 2°54.477 21.0939 0.062995 0.342217 0.53169
2009-06-23 07:09:38 51°14.941 2°54.467 21.1117 0.062995 0.342217 0.53169
2009-06-23 07:09:43 51°14.955 2°54.458 21.0475 0.062995 0.342217 0.53169
2009-06-23 07:09:48 51°14.968 2°54.444 21.0894 0.062995 0.342223 0.53169
2009-06-23 07:09:53 51°14.982 2°54.432 21.0878 0.062995 0.342223 0.53169
2009-06-23 07:09:58 51°14.995 2°54.419 21.0761 0.062995 0.342217 0.53169
2009-06-23 07:10:04 51°15.011 2°54.403 21.0681 0.062995 0.342223 0.53169
2009-06-23 07:10:08 51°15.022 2°54.391 21.0649 0.062995 0.342223 0.53169
2009-06-23 07:10:14 51°15.037 2°54.373 21.066 0.062995 0.342217 0.53169
2009-06-23 07:10:18 51°15.046 2°54.361 21.0559 0.062995 0.342223 0.53169
2009-06-23 07:10:23 51°15.058 2°54.346 21.087 0.062995 0.342229 0.53169
2009-06-23 07:10:28 51°15.071 2°54.33 21.0709 0.062995 0.342235 0.53169
2009-06-23 07:10:32 51°15.08 2°54.318 21.0888 0.062995 0.342241 0.53169
2009-06-23 07:10:39 51°15.097 2°54.295 21.0749 0.062995 0.342253 0.496866
2009-06-23 07:10:43 51°15.106 2°54.282 21.0365 0.062995 0.342253 0.496866
2009-06-23 07:10:48 51°15.118 2°54.264 21.0826 0.062995 0.342253 0.53169
2009-06-23 07:10:53 51°15.129 2°54.247 21.0697 0.062995 0.342259 0.53169
2009-06-23 07:10:58 51°15.14 2°54.228 21.0721 0.062995 0.342253 0.53169
2009-06-23 07:11:03 51°15.151 2°54.21 21.0447 0.062995 0.342253 0.53169
2009-06-23 07:11:08 51°15.161 2°54.191 21.0834 0.062995 0.342253 0.53169
2009-06-23 07:11:13 51°15.172 2°54.172 21.0623 0.062995 0.342253 0.53169
2009-06-23 07:11:18 51°15.182 2°54.153 21.0805 0.062995 0.342247 0.53169
2009-06-23 07:11:24 51°15.195 2°54.13 21.0569 0.062995 0.342247 0.53169
2009-06-23 07:11:28 51°15.203 2°54.114 21.0605 0.062995 0.342247 0.53169
2009-06-23 07:11:33 51°15.213 2°54.094 21.0899 0.062995 0.342247 0.53169
2009-06-23 07:11:38 51°15.222 2°54.073 21.0596 0.062995 0.342247 0.53169
2009-06-23 07:11:43 51°15.231 2°54.052 21.0909 0.062995 0.342247 0.53169
2009-06-23 07:11:48 51°15.241 2°54.031 21.0315 0.062995 0.342259 0.53169
2009-06-23 07:11:53 51°15.249 2°54.009 21.0815 0.062995 0.342259 0.53169
2009-06-23 07:11:58 51°15.258 2°53.988 21.0489 0.062995 0.342265 0.53169
2009-06-23 07:12:03 51°15.266 2°53.965 21.0844 0.062995 0.342277 0.53169
2009-06-23 07:12:08 51°15.275 2°53.943 21.0674 0.062995 0.342271 0.53169
2009-06-23 07:12:13 51°15.282 2°53.92 21.0873 0.062995 0.342271 0.53169
2009-06-23 07:12:18 51°15.29 2°53.897 21.0597 0.062995 0.342277 0.53169
2009-06-23 07:12:23 51°15.297 2°53.873 21.0743 0.062995 0.342283 0.53169
2009-06-23 07:12:28 51°15.305 2°53.849 21.0585 0.062995 0.342283 0.53169
2009-06-23 07:12:33 51°15.312 2°53.824 21.0763 0.062995 0.342283 0.53169
2009-06-23 07:12:38 51°15.318 2°53.8 21.0589 0.062995 0.342283 0.53169
2009-06-23 07:12:43 51°15.325 2°53.775 21.0615 0.062995 0.342283 0.53169
2009-06-23 07:12:48 51°15.332 2°53.751 21.0638 0.062995 0.342277 0.53169
2009-06-23 07:12:53 51°15.339 2°53.727 21.0337 0.062995 0.342283 0.53169
2009-06-23 07:12:58 51°15.346 2°53.703 21.0526 0.062995 0.342283 0.53169
2009-06-23 07:13:04 51°15.355 2°53.674 21.0437 0.062995 0.342289 0.53169
2009-06-23 07:13:08 51°15.361 2°53.655 21.067 0.062995 0.342289 0.53169
2009-06-23 07:13:13 51°15.369 2°53.632 21.024 0.062995 0.342289 0.53169
2009-06-23 07:13:19 51°15.379 2°53.604 21.0781 0.062995 0.342295 0.53169
2009-06-23 07:13:24 51°15.387 2°53.58 21.0638 0.062995 0.342301 0.53169
2009-06-23 07:13:28 51°15.393 2°53.562 21.0674 0.062995 0.342301 0.53169
2009-06-23 07:13:34 51°15.402 2°53.533 21.0532 0.062995 0.342307 0.53169
2009-06-23 07:13:38 51°15.408 2°53.514 21.0595 0.062995 0.342307 0.53169
2009-06-23 07:13:43 51°15.416 2°53.49 21.0526 0.062995 0.342313 0.53169
2009-06-23 07:13:48 51°15.423 2°53.466 21.0554 0.062995 0.342313 0.53169
2009-06-23 07:13:54 51°15.432 2°53.437 21.0424 0.062995 0.342313 0.53169
2009-06-23 07:13:58 51°15.438 2°53.418 21.06 0.062995 0.342313 0.53169
2009-06-23 07:14:04 51°15.447 2°53.389 21.069 0.062995 0.342313 0.53169
2009-06-23 07:14:08 51°15.453 2°53.37 21.063 0.062995 0.342319 0.53169
2009-06-23 07:14:13 51°15.46 2°53.346 21.0558 0.062995 0.342319 0.53169
2009-06-23 07:14:18 51°15.468 2°53.322 21.0514 0.062995 0.342319 0.53169
2009-06-23 07:14:23 51°15.475 2°53.298 21.0445 0.062995 0.342319 0.53169
2009-06-23 07:14:28 51°15.483 2°53.273 21.0603 0.062995 0.342319 0.53169
2009-06-23 07:14:34 51°15.493 2°53.245 21.0566 0.062995 0.342331 0.53169
2009-06-23 07:14:38 51°15.499 2°53.226 21.062 0.062995 0.342331 0.53169
2009-06-23 07:14:43 51°15.507 2°53.203 21.0633 0.062995 0.342331 0.53169
2009-06-23 07:14:48 51°15.515 2°53.179 21.05 0.062995 0.342337 0.53169
2009-06-23 07:14:53 51°15.524 2°53.156 21.0444 0.062995 0.342337 0.53169
2009-06-23 07:14:59 51°15.534 2°53.127 21.0636 0.062995 0.342337 0.496866
2009-06-23 07:15:03 51°15.541 2°53.109 21.0524 0.062995 0.342343 0.53169
2009-06-23 07:15:08 51°15.549 2°53.085 21.0605 0.062995 0.342343 0.53169
2009-06-23 07:15:13 51°15.558 2°53.062 21.0523 0.062995 0.342343 0.53169
2009-06-23 07:15:19 51°15.568 2°53.034 21.0508 0.062995 0.342343 0.53169
2009-06-23 07:15:23 51°15.575 2°53.015 21.0648 0.062995 0.342343 0.53169
2009-06-23 07:15:28 51°15.584 2°52.992 21.0124 0.062995 0.342343 0.53169
2009-06-23 07:15:33 51°15.592 2°52.969 21.0364 0.062995 0.342343 0.53169
2009-06-23 07:15:39 51°15.603 2°52.942 21.0081 0.062995 0.342337 0.53169
2009-06-23 07:15:44 51°15.614 2°52.922 21.0329 0.062995 0.342337 0.53169
2009-06-23 07:15:48 51°15.623 2°52.907 21.0327 0.062995 0.342343 0.53169
2009-06-23 07:15:53 51°15.634 2°52.889 21.0278 0.062995 0.342349 0.53169
2009-06-23 07:15:58 51°15.646 2°52.872 21.0317 0.062995 0.342349 0.53169
2009-06-23 07:16:04 51°15.661 2°52.854 21.0363 0.062995 0.342349 0.53169
2009-06-23 07:16:08 51°15.672 2°52.845 21.0217 0.062995 0.342361 0.53169
2009-06-23 07:16:14 51°15.688 2°52.83 21.034 0.062995 0.342361 0.53169
2009-06-23 07:16:18 51°15.699 2°52.822 21.0363 0.062995 0.342367 0.566514
2009-06-23 07:16:23 51°15.713 2°52.811 21.0331 0.062995 0.342367 0.566514
2009-06-23 07:16:28 51°15.727 2°52.802 21.0451 0.062995 0.342373 0.53169
2009-06-23 07:16:33 51°15.741 2°52.792 21.0304 0.062995 0.342373 0.53169
2009-06-23 07:16:39 51°15.759 2°52.781 21.0494 0.062995 0.342373 0.53169
2009-06-23 07:16:43 51°15.77 2°52.773 21.0448 0.062995 0.342373 0.566514
2009-06-23 07:16:48 51°15.784 2°52.765 21.0389 0.062995 0.342373 0.53169
2009-06-23 07:16:53 51°15.798 2°52.756 21.0249 0.062995 0.342373 0.53169
2009-06-23 07:16:59 51°15.816 2°52.746 21.0399 0.062995 0.342373 0.566514
2009-06-23 07:17:03 51°15.827 2°52.739 21.0381 0.062995 0.342373 0.53169
2009-06-23 07:17:08 51°15.842 2°52.731 21.0403 0.062995 0.342373 0.53169
2009-06-23 07:17:13 51°15.856 2°52.722 21.0401 0.062995 0.342373 0.53169
2009-06-23 07:17:18 51°15.871 2°52.714 21.0057 0.062995 0.342379 0.53169
2009-06-23 07:17:23 51°15.885 2°52.705 21.0427 0.062995 0.342373 0.53169
2009-06-23 07:17:28 51°15.9 2°52.698 21.0249 0.062995 0.342379 0.53169
2009-06-23 07:17:33 51°15.914 2°52.689 21.019 0.062995 0.342379 0.53169
2009-06-23 07:17:38 51°15.929 2°52.682 21.0131 0.062995 0.342379 0.53169
2009-06-23 07:17:44 51°15.946 2°52.675 21.0317 0.062995 0.342379 0.53169
2009-06-23 07:17:48 51°15.958 2°52.671 21.0159 0.062995 0.342379 0.566514
2009-06-23 07:17:53 51°15.972 2°52.667 21.0304 0.062995 0.342385 0.53169
2009-06-23 07:17:58 51°15.987 2°52.664 21.0284 0.062995 0.342385 0.566514
2009-06-23 07:18:04 51°16.005 2°52.66 21.0207 0.062995 0.342391 0.566514
2009-06-23 07:18:08 51°16.017 2°52.658 21.0264 0.062995 0.342397 0.53169
2009-06-23 07:18:13 51°16.031 2°52.656 21.0415 0.062995 0.342397 0.53169
2009-06-23 07:18:18 51°16.046 2°52.654 21.0236 0.062995 0.342391 0.566514
2009-06-23 07:18:23 51°16.061 2°52.651 21.0129 0.062995 0.342397 0.53169
2009-06-23 07:18:28 51°16.075 2°52.649 21.0128 0.062995 0.342397 0.53169
2009-06-23 07:18:33 51°16.089 2°52.647 21.0392 0.062995 0.342391 0.53169
2009-06-23 07:18:38 51°16.104 2°52.645 21.0334 0.062995 0.342391 0.53169
2009-06-23 07:18:43 51°16.118 2°52.644 21.0273 0.062995 0.342397 0.53169
2009-06-23 07:18:48 51°16.132 2°52.643 21.0418 0.062995 0.342397 0.53169
2009-06-23 07:18:53 51°16.147 2°52.642 21.0432 0.062995 0.342403 0.53169
2009-06-23 07:18:58 51°16.161 2°52.642 21.0359 0.062995 0.342403 0.53169
2009-06-23 07:19:04 51°16.178 2°52.641 21.0506 0.062995 0.342409 0.53169
2009-06-23 07:19:08 51°16.19 2°52.64 21.0554 0.062995 0.342409 0.566514
2009-06-23 07:19:14 51°16.207 2°52.639 21.0141 0.062995 0.342409 0.566514
2009-06-23 07:19:18 51°16.218 2°52.637 21.0482 0.062995 0.342415 0.53169
2009-06-23 07:19:23 51°16.233 2°52.636 21.0331 0.062995 0.342421 0.53169
2009-06-23 07:19:28 51°16.247 2°52.634 21.041 0.062995 0.342415 0.566514
2009-06-23 07:19:34 51°16.265 2°52.632 21.0258 0.062995 0.342421 0.53169
2009-06-23 07:19:39 51°16.28 2°52.63 21.0494 0.062995 0.342421 0.53169
2009-06-23 07:19:43 51°16.291 2°52.628 21.0408 0.062995 0.342421 0.53169
2009-06-23 07:19:48 51°16.306 2°52.626 21.052 0.062995 0.342427 0.53169
2009-06-23 07:19:53 51°16.321 2°52.623 21.0452 0.062995 0.342427 0.53169
2009-06-23 07:19:59 51°16.339 2°52.619 21.0324 0.062995 0.342427 0.53169
2009-06-23 07:20:03 51°16.35 2°52.617 21.0424 0.062995 0.342433 0.566514
2009-06-23 07:20:08 51°16.365 2°52.614 21.0428 0.062995 0.342433 0.566514
2009-06-23 07:20:14 51°16.383 2°52.61 21.039 0.062995 0.342433 0.566514
2009-06-23 07:20:18 51°16.395 2°52.608 21.0378 0.062995 0.342427 0.566514
2009-06-23 07:20:23 51°16.409 2°52.607 21.0533 0.062995 0.342427 0.53169
2009-06-23 07:20:28 51°16.424 2°52.607 21.0402 0.062995 0.342433 0.53169
2009-06-23 07:20:33 51°16.439 2°52.605 21.057 0.062995 0.342433 0.53169
2009-06-23 07:20:38 51°16.453 2°52.604 21.0519 0.062995 0.342433 0.53169
2009-06-23 07:20:44 51°16.471 2°52.602 21.0482 0.062995 0.342439 0.53169
2009-06-23 07:20:48 51°16.483 2°52.601 21.0575 0.062995 0.342445 0.53169
2009-06-23 07:20:53 51°16.497 2°52.599 21.0529 0.062995 0.342439 0.53169
2009-06-23 07:20:59 51°16.515 2°52.598 21.0677 0.062995 0.342445 0.53169
2009-06-23 07:21:03 51°16.527 2°52.596 21.0506 0.062995 0.342445 0.53169
2009-06-23 07:21:08 51°16.542 2°52.594 21.0566 0.062995 0.342445 0.53169
2009-06-23 07:21:13 51°16.557 2°52.592 21.0597 0.062995 0.342445 0.53169
2009-06-23 07:21:19 51°16.575 2°52.589 21.0496 0.062995 0.342451 0.53169
2009-06-23 07:21:23 51°16.587 2°52.587 21.0478 0.062995 0.342451 0.53169
2009-06-23 07:21:28 51°16.602 2°52.584 21.0512 0.062995 0.342451 0.53169
2009-06-23 07:21:33 51°16.617 2°52.581 21.0615 0.062995 0.342451 0.566514
2009-06-23 07:21:38 51°16.631 2°52.578 21.0645 0.062995 0.342451 0.566514
2009-06-23 07:21:43 51°16.646 2°52.575 21.0625 0.062995 0.342457 0.53169
2009-06-23 07:21:48 51°16.661 2°52.572 21.0611 0.062995 0.342463 0.566514
2009-06-23 07:21:54 51°16.679 2°52.568 21.0492 0.062995 0.342457 0.566514
2009-06-23 07:21:59 51°16.694 2°52.565 21.0562 0.062995 0.342457 0.53169
2009-06-23 07:22:03 51°16.706 2°52.562 21.0501 0.062995 0.342457 0.53169
2009-06-23 07:22:08 51°16.72 2°52.558 21.0655 0.062995 0.342457 0.53169
2009-06-23 07:22:13 51°16.735 2°52.556 21.0483 0.062995 0.342463 0.53169
2009-06-23 07:22:19 51°16.752 2°52.552 21.0765 0.062995 0.342463 0.53169
2009-06-23 07:22:23 51°16.764 2°52.55 21.0544 0.062995 0.342469 0.566514
2009-06-23 07:22:28 51°16.779 2°52.546 21.06 0.062995 0.342469 0.53169
2009-06-23 07:22:34 51°16.796 2°52.542 21.056 0.062995 0.342469 0.53169
2009-06-23 07:22:39 51°16.811 2°52.538 21.0695 0.062995 0.342475 0.53169
2009-06-23 07:22:43 51°16.822 2°52.536 21.0573 0.062995 0.342475 0.53169
2009-06-23 07:22:48 51°16.837 2°52.532 21.0662 0.062995 0.342475 0.53169
2009-06-23 07:22:53 51°16.851 2°52.528 21.0647 0.062995 0.342475 0.53169
2009-06-23 07:22:58 51°16.866 2°52.524 21.0644 0.062995 0.342475 0.53169
2009-06-23 07:23:03 51°16.88 2°52.521 21.0621 0.062995 0.342481 0.53169
2009-06-23 07:23:08 51°16.894 2°52.517 21.0778 0.062995 0.342481 0.53169
2009-06-23 07:23:13 51°16.909 2°52.513 21.0712 0.062995 0.342481 0.53169
2009-06-23 07:23:19 51°16.926 2°52.509 21.0786 0.062995 0.342487 0.53169
2009-06-23 07:23:23 51°16.937 2°52.506 21.0647 0.062995 0.342487 0.53169
2009-06-23 07:23:28 51°16.952 2°52.503 21.0795 0.062995 0.342487 0.53169
2009-06-23 07:23:33 51°16.966 2°52.499 21.0819 0.062995 0.342493 0.566514
2009-06-23 07:23:39 51°16.983 2°52.496 21.0848 0.062995 0.342493 0.566514
2009-06-23 07:23:43 51°16.995 2°52.493 21.0758 0.062995 0.342493 0.53169
2009-06-23 07:23:48 51°17.009 2°52.49 21.0782 0.062995 0.342493 0.53169
2009-06-23 07:23:53 51°17.023 2°52.486 21.0724 0.062995 0.342499 0.566514
2009-06-23 07:23:58 51°17.038 2°52.483 21.0689 0.062995 0.342499 0.53169
2009-06-23 07:24:03 51°17.052 2°52.48 21.0881 0.062995 0.342499 0.53169
2009-06-23 07:24:08 51°17.067 2°52.477 21.064 0.062995 0.342499 0.53169
2009-06-23 07:24:13 51°17.081 2°52.474 21.0787 0.062995 0.342505 0.566514
2009-06-23 07:24:18 51°17.095 2°52.47 21.0657 0.062995 0.342505 0.53169
2009-06-23 07:24:24 51°17.113 2°52.466 21.0725 0.062995 0.342505 0.53169
2009-06-23 07:24:28 51°17.124 2°52.464 21.0862 0.062995 0.342505 0.53169
2009-06-23 07:24:33 51°17.139 2°52.461 21.0798 0.062995 0.342511 0.566514
2009-06-23 07:24:39 51°17.156 2°52.457 21.0807 0.062995 0.342511 0.53169
2009-06-23 07:24:44 51°17.171 2°52.455 21.0887 0.062995 0.342511 0.53169
2009-06-23 07:24:48 51°17.182 2°52.452 21.0766 0.062995 0.342517 0.53169
2009-06-23 07:24:54 51°17.199 2°52.448 21.0777 0.062995 0.342517 0.53169
2009-06-23 07:24:58 51°17.211 2°52.445 21.092 0.062995 0.342523 0.53169
2009-06-23 07:25:03 51°17.225 2°52.441 21.0765 0.062995 0.342523 0.53169
2009-06-23 07:25:08 51°17.24 2°52.436 21.0935 0.062995 0.342529 0.53169
2009-06-23 07:25:13 51°17.254 2°52.432 21.0807 0.062995 0.342529 0.53169
2009-06-23 07:25:18 51°17.268 2°52.426 21.09 0.062995 0.342529 0.53169
2009-06-23 07:25:24 51°17.285 2°52.419 21.0918 0.062995 0.342529 0.53169
2009-06-23 07:25:28 51°17.296 2°52.414 21.0964 0.062995 0.342529 0.53169
2009-06-23 07:25:34 51°17.313 2°52.407 21.0745 0.062995 0.342535 0.53169
2009-06-23 07:25:38 51°17.324 2°52.4 21.0903 0.062995 0.342535 0.53169
2009-06-23 07:25:43 51°17.338 2°52.393 21.0951 0.062995 0.342535 0.53169
2009-06-23 07:25:48 51°17.352 2°52.385 21.0829 0.062995 0.342541 0.53169
2009-06-23 07:25:54 51°17.369 2°52.376 21.0875 0.062995 0.342541 0.53169
2009-06-23 07:25:59 51°17.382 2°52.367 21.0827 0.062995 0.342541 0.53169
2009-06-23 07:26:03 51°17.394 2°52.361 21.1 0.062995 0.342541 0.53169
2009-06-23 07:26:08 51°17.407 2°52.353 21.0822 0.062995 0.342541 0.53169
2009-06-23 07:26:13 51°17.421 2°52.344 21.0998 0.062995 0.342547 0.566514
2009-06-23 07:26:19 51°17.438 2°52.335 21.0936 0.062995 0.342547 0.53169
2009-06-23 07:26:23 51°17.449 2°52.328 21.0939 0.062995 0.342547 0.566514
2009-06-23 07:26:28 51°17.463 2°52.32 21.0961 0.062995 0.342553 0.53169
2009-06-23 07:26:34 51°17.479 2°52.31 21.0815 0.062995 0.342553 0.53169
2009-06-23 07:26:39 51°17.493 2°52.301 21.1036 0.062995 0.342559 0.566514
2009-06-23 07:26:43 51°17.504 2°52.294 21.0862 0.062995 0.342559 0.566514
2009-06-23 07:26:48 51°17.518 2°52.286 21.0905 0.062995 0.342559 0.53169
2009-06-23 07:26:53 51°17.532 2°52.277 21.0978 0.062995 0.342559 0.53169
2009-06-23 07:26:58 51°17.546 2°52.269 21.0944 0.062995 0.342559 0.53169
2009-06-23 07:27:03 51°17.559 2°52.261 21.1059 0.062995 0.342559 0.53169
2009-06-23 07:27:08 51°17.573 2°52.253 21.0852 0.062995 0.342559 0.53169
2009-06-23 07:27:13 51°17.587 2°52.244 21.0964 0.062995 0.342565 0.53169
2009-06-23 07:27:18 51°17.601 2°52.236 21.0982 0.062995 0.342565 0.53169
2009-06-23 07:27:24 51°17.618 2°52.226 21.0928 0.062995 0.342565 0.53169
2009-06-23 07:27:28 51°17.629 2°52.22 21.0997 0.062995 0.342565 0.53169
2009-06-23 07:27:33 51°17.643 2°52.212 21.0869 0.062995 0.342571 0.53169
2009-06-23 07:27:39 51°17.66 2°52.201 21.1078 0.062995 0.342571 0.53169
2009-06-23 07:27:44 51°17.674 2°52.193 21.1141 0.062995 0.342577 0.566514
2009-06-23 07:27:48 51°17.685 2°52.186 21.1005 0.062995 0.342577 0.53169
2009-06-23 07:27:53 51°17.699 2°52.177 21.1095 0.062995 0.342577 0.53169
2009-06-23 07:27:58 51°17.713 2°52.169 21.1072 0.062995 0.342583 0.53169
2009-06-23 07:28:03 51°17.727 2°52.16 21.1117 0.062995 0.342583 0.53169
2009-06-23 07:28:08 51°17.741 2°52.152 21.1108 0.062995 0.342583 0.53169
2009-06-23 07:28:13 51°17.754 2°52.144 21.1084 0.062995 0.342583 0.53169
2009-06-23 07:28:19 51°17.771 2°52.134 21.1087 0.062995 0.342589 0.566514
2009-06-23 07:28:23 51°17.782 2°52.127 21.1106 0.062995 0.342589 0.53169
2009-06-23 07:28:28 51°17.796 2°52.119 21.12 0.062995 0.342589 0.53169
2009-06-23 07:28:33 51°17.81 2°52.111 21.1005 0.062995 0.342589 0.53169
2009-06-23 07:28:38 51°17.824 2°52.103 21.1088 0.062995 0.342595 0.53169
2009-06-23 07:28:43 51°17.838 2°52.095 21.1072 0.062995 0.342595 0.53169
2009-06-23 07:28:48 51°17.853 2°52.088 21.1101 0.062995 0.342595 0.53169
2009-06-23 07:28:53 51°17.867 2°52.08 21.1031 0.062995 0.342595 0.53169
2009-06-23 07:28:58 51°17.881 2°52.072 21.0964 0.062995 0.342595 0.53169
2009-06-23 07:29:04 51°17.898 2°52.063 21.1161 0.062995 0.342595 0.53169
2009-06-23 07:29:08 51°17.909 2°52.057 21.121 0.062995 0.342595 0.53169
2009-06-23 07:29:13 51°17.923 2°52.05 21.1011 0.062995 0.342602 0.53169
2009-06-23 07:29:18 51°17.937 2°52.042 21.1064 0.062995 0.342608 0.566514
2009-06-23 07:29:23 51°17.951 2°52.034 21.1226 0.062995 0.342608 0.53169
2009-06-23 07:29:28 51°17.965 2°52.026 21.0965 0.062995 0.342608 0.53169
2009-06-23 07:29:33 51°17.979 2°52.019 21.1245 0.062995 0.342608 0.53169
2009-06-23 07:29:38 51°17.994 2°52.011 21.112 0.062995 0.342608 0.53169
2009-06-23 07:29:44 51°18.011 2°52.002 21.1268 0.062995 0.342608 0.53169
2009-06-23 07:29:48 51°18.022 2°51.996 21.1227 0.062995 0.342608 0.53169
2009-06-23 07:29:53 51°18.036 2°51.988 21.1143 0.062995 0.342614 0.53169
2009-06-23 07:29:58 51°18.05 2°51.98 21.1294 0.062995 0.34262 0.53169
2009-06-23 07:30:03 51°18.064 2°51.972 21.1167 0.062995 0.34262 0.53169
2009-06-23 07:30:08 51°18.078 2°51.963 21.1111 0.062995 0.34262 0.53169
2009-06-23 07:30:12 51°18.089 2°51.957 21.1338 0.062995 0.34262 0.53169
2009-06-23 07:30:18 51°18.106 2°51.947 21.1306 0.062995 0.34262 0.53169
2009-06-23 07:30:23 51°18.12 2°51.939 21.123 0.062995 0.34262 0.53169
2009-06-23 07:30:28 51°18.134 2°51.93 21.1328 0.062995 0.342626 0.566514
2009-06-23 07:30:33 51°18.148 2°51.922 21.1259 0.062995 0.342626 0.53169
2009-06-23 07:30:38 51°18.162 2°51.914 21.1198 0.062995 0.342626 0.53169
2009-06-23 07:30:43 51°18.177 2°51.906 21.1269 0.062995 0.342626 0.53169
2009-06-23 07:30:48 51°18.191 2°51.897 21.1226 0.062995 0.342632 0.53169
2009-06-23 07:30:53 51°18.205 2°51.889 21.1333 0.062995 0.342632 0.53169
2009-06-23 07:30:59 51°18.222 2°51.879 21.1259 0.062995 0.342638 0.53169
2009-06-23 07:31:03 51°18.233 2°51.872 21.1248 0.062995 0.342638 0.53169
2009-06-23 07:31:08 51°18.247 2°51.863 21.1254 0.062995 0.342638 0.53169
2009-06-23 07:31:13 51°18.261 2°51.855 21.1246 0.062995 0.342638 0.53169
2009-06-23 07:31:19 51°18.278 2°51.845 21.1332 0.062995 0.342638 0.53169
2009-06-23 07:31:23 51°18.289 2°51.838 21.1289 0.062995 0.342644 0.53169
2009-06-23 07:31:28 51°18.303 2°51.83 21.1313 0.062995 0.342644 0.53169
2009-06-23 07:31:33 51°18.318 2°51.821 21.1359 0.062995 0.342644 0.53169
2009-06-23 07:31:38 51°18.332 2°51.813 21.1413 0.062995 0.342644 0.53169
2009-06-23 07:31:43 51°18.346 2°51.805 21.1419 0.062995 0.34265 0.53169
2009-06-23 07:31:48 51°18.36 2°51.797 21.1303 0.062995 0.34265 0.53169
2009-06-23 07:31:53 51°18.374 2°51.789 21.1379 0.062995 0.34265 0.53169
2009-06-23 07:31:58 51°18.388 2°51.78 21.1439 0.062995 0.342656 0.53169
2009-06-23 07:32:03 51°18.403 2°51.772 21.1352 0.062995 0.342656 0.53169
2009-06-23 07:32:08 51°18.417 2°51.764 21.1519 0.062995 0.342656 0.53169
2009-06-23 07:32:13 51°18.431 2°51.756 21.1389 0.062995 0.342656 0.53169
2009-06-23 07:32:18 51°18.445 2°51.746 21.1352 0.062995 0.342662 0.53169
2009-06-23 07:32:23 51°18.459 2°51.737 21.1414 0.062995 0.342662 0.53169
2009-06-23 07:32:28 51°18.473 2°51.728 21.1263 0.062995 0.342668 0.566514
2009-06-23 07:32:32 51°18.484 2°51.72 21.1555 0.062995 0.342674 0.53169
2009-06-23 07:32:38 51°18.501 2°51.709 21.1383 0.062995 0.342674 0.53169
2009-06-23 07:32:43 51°18.515 2°51.699 21.1426 0.062995 0.342674 0.53169
2009-06-23 07:32:48 51°18.528 2°51.69 21.1537 0.062995 0.342674 0.53169
2009-06-23 07:32:54 51°18.545 2°51.679 21.1385 0.062995 0.34268 0.53169
2009-06-23 07:32:58 51°18.556 2°51.671 21.1563 0.062995 0.34268 0.53169
2009-06-23 07:33:03 51°18.57 2°51.661 21.1296 0.062995 0.342686 0.53169
2009-06-23 07:33:08 51°18.584 2°51.651 21.1572 0.062995 0.342686 0.53169
2009-06-23 07:33:14 51°18.601 2°51.638 21.1478 0.062995 0.342686 0.53169
2009-06-23 07:33:18 51°18.612 2°51.63 21.1616 0.062995 0.342692 0.566514
2009-06-23 07:33:23 51°18.626 2°51.62 21.1384 0.062995 0.342692 0.53169
2009-06-23 07:33:28 51°18.64 2°51.609 21.1489 0.062995 0.342692 0.53169
2009-06-23 07:33:32 51°18.651 2°51.601 21.1534 0.062995 0.342692 0.53169
2009-06-23 07:33:38 51°18.668 2°51.589 21.1433 0.062995 0.342698 0.53169
2009-06-23 07:33:44 51°18.685 2°51.577 21.158 0.062995 0.342698 0.53169
2009-06-23 07:33:48 51°18.696 2°51.569 21.1446 0.062995 0.342704 0.53169
2009-06-23 07:33:53 51°18.71 2°51.559 21.1566 0.062995 0.342704 0.53169
2009-06-23 07:33:58 51°18.724 2°51.549 21.1568 0.062995 0.342704 0.566514
2009-06-23 07:34:03 51°18.738 2°51.539 21.1496 0.062995 0.34271 0.53169
2009-06-23 07:34:08 51°18.751 2°51.528 21.1497 0.062995 0.342716 0.53169
2009-06-23 07:34:13 51°18.765 2°51.518 21.1631 0.062995 0.342716 0.53169
2009-06-23 07:34:18 51°18.779 2°51.508 21.1677 0.062995 0.342716 0.53169
2009-06-23 07:34:23 51°18.793 2°51.497 21.1414 0.062995 0.342722 0.53169
2009-06-23 07:34:28 51°18.807 2°51.486 21.1591 0.062995 0.342722 0.53169
2009-06-23 07:34:33 51°18.821 2°51.476 21.1513 0.062995 0.342728 0.53169
2009-06-23 07:34:38 51°18.834 2°51.464 21.1573 0.062995 0.342728 0.53169
2009-06-23 07:34:43 51°18.848 2°51.453 21.1616 0.062995 0.342728 0.53169
2009-06-23 07:34:48 51°18.862 2°51.442 21.1521 0.062995 0.342728 0.53169
2009-06-23 07:34:53 51°18.875 2°51.431 21.1534 0.062995 0.342734 0.53169
2009-06-23 07:34:58 51°18.889 2°51.419 21.167 0.062995 0.34274 0.53169
2009-06-23 07:35:03 51°18.903 2°51.408 21.1594 0.062995 0.34274 0.53169
2009-06-23 07:35:08 51°18.916 2°51.396 21.1619 0.062995 0.34274 0.53169
2009-06-23 07:35:13 51°18.93 2°51.384 21.1568 0.062995 0.342746 0.53169
2009-06-23 07:35:18 51°18.944 2°51.373 21.1624 0.062995 0.342752 0.53169
2009-06-23 07:35:23 51°18.957 2°51.361 21.1696 0.062995 0.342758 0.53169
2009-06-23 07:35:28 51°18.971 2°51.349 21.1612 0.062995 0.342758 0.53169
2009-06-23 07:35:33 51°18.985 2°51.338 21.1674 0.062995 0.342758 0.53169
2009-06-23 07:35:39 51°19.001 2°51.324 21.1708 0.062995 0.342764 0.566514
2009-06-23 07:35:43 51°19.012 2°51.315 21.1698 0.062995 0.342764 0.566514
2009-06-23 07:35:48 51°19.026 2°51.303 21.1716 0.062995 0.34277 0.53169
2009-06-23 07:35:53 51°19.039 2°51.291 21.1626 0.062995 0.34277 0.53169
2009-06-23 07:35:59 51°19.056 2°51.278 21.1729 0.062995 0.34277 0.53169
2009-06-23 07:36:03 51°19.067 2°51.269 21.1588 0.062995 0.342776 0.566514
2009-06-23 07:36:08 51°19.08 2°51.257 21.1731 0.062995 0.342776 0.566514
2009-06-23 07:36:13 51°19.094 2°51.246 21.1706 0.062995 0.342776 0.566514
2009-06-23 07:36:18 51°19.108 2°51.235 21.1595 0.062995 0.342782 0.53169
2009-06-23 07:36:23 51°19.121 2°51.223 21.1725 0.062995 0.342788 0.53169
2009-06-23 07:36:28 51°19.135 2°51.212 21.1637 0.062995 0.342788 0.53169
2009-06-23 07:36:33 51°19.149 2°51.201 21.1812 0.062995 0.342794 0.53169
2009-06-23 07:36:38 51°19.162 2°51.19 21.1807 0.062995 0.342794 0.53169
2009-06-23 07:36:43 51°19.175 2°51.18 21.1648 0.062995 0.3428 0.566514
2009-06-23 07:36:48 51°19.189 2°51.168 21.1748 0.062995 0.3428 0.566514
2009-06-23 07:36:53 51°19.203 2°51.157 21.1786 0.062995 0.342806 0.53169
2009-06-23 07:36:58 51°19.217 2°51.145 21.1633 0.062995 0.342806 0.53169
2009-06-23 07:37:03 51°19.23 2°51.134 21.1789 0.062995 0.342812 0.53169
2009-06-23 07:37:08 51°19.244 2°51.122 21.18 0.062995 0.342812 0.53169
2009-06-23 07:37:12 51°19.255 2°51.113 21.165 0.062995 0.342812 0.53169
2009-06-23 07:37:18 51°19.272 2°51.1 21.1848 0.062995 0.342818 0.566514
2009-06-23 07:37:23 51°19.285 2°51.089 21.1821 0.062995 0.342824 0.566514
2009-06-23 07:37:28 51°19.299 2°51.077 21.1767 0.062995 0.34283 0.566514
2009-06-23 07:37:32 51°19.31 2°51.068 21.1696 0.062995 0.34283 0.53169
2009-06-23 07:37:38 51°19.326 2°51.054 21.1812 0.062995 0.342836 0.53169
2009-06-23 07:37:43 51°19.34 2°51.043 21.1706 0.062995 0.342836 0.53169
2009-06-23 07:37:48 51°19.354 2°51.031 21.1725 0.062995 0.342836 0.53169
2009-06-23 07:37:54 51°19.37 2°51.018 21.1649 0.062995 0.342842 0.53169
2009-06-23 07:37:58 51°19.381 2°51.009 21.1855 0.062995 0.342842 0.566514
2009-06-23 07:38:03 51°19.395 2°50.999 21.1732 0.062995 0.342842 0.53169
2009-06-23 07:38:08 51°19.409 2°50.988 21.1925 0.062995 0.342842 0.53169
2009-06-23 07:38:12 51°19.42 2°50.98 21.1758 0.062995 0.342854 0.566514
2009-06-23 07:38:18 51°19.436 2°50.967 21.1901 0.062995 0.342854 0.566514
2009-06-23 07:38:23 51°19.45 2°50.956 21.1801 0.062995 0.34286 0.53169
2009-06-23 07:38:28 51°19.463 2°50.945 21.1875 0.062995 0.342866 0.53169
2009-06-23 07:38:32 51°19.474 2°50.936 21.1919 0.062995 0.342872 0.53169
2009-06-23 07:38:38 51°19.49 2°50.922 21.1786 0.062995 0.342872 0.53169
2009-06-23 07:38:43 51°19.504 2°50.912 21.1856 0.062995 0.342872 0.53169
2009-06-23 07:38:48 51°19.518 2°50.901 21.1951 0.062995 0.342872 0.53169
2009-06-23 07:38:52 51°19.529 2°50.893 21.192 0.062995 0.342878 0.566514
2009-06-23 07:38:58 51°19.545 2°50.88 21.194 0.062995 0.342878 0.566514
2009-06-23 07:39:03 51°19.559 2°50.869 21.1913 0.062995 0.342885 0.53169
2009-06-23 07:39:08 51°19.572 2°50.859 21.1849 0.062995 0.342891 0.53169
2009-06-23 07:39:12 51°19.583 2°50.85 21.1848 0.062995 0.342891 0.53169
2009-06-23 07:39:18 51°19.6 2°50.837 21.198 0.062995 0.342891 0.566514
2009-06-23 07:39:23 51°19.613 2°50.826 21.193 0.062995 0.342897 0.566514
2009-06-23 07:39:28 51°19.627 2°50.816 21.1736 0.062995 0.342903 0.53169
2009-06-23 07:39:34 51°19.643 2°50.803 21.2075 0.062995 0.342903 0.566514
2009-06-23 07:39:38 51°19.654 2°50.794 21.1842 0.062995 0.342903 0.566514
2009-06-23 07:39:43 51°19.668 2°50.783 21.2039 0.062995 0.342909 0.53169
2009-06-23 07:39:48 51°19.682 2°50.773 21.2049 0.062995 0.342915 0.566514
2009-06-23 07:39:54 51°19.698 2°50.76 21.2061 0.062995 0.342915 0.566514
2009-06-23 07:39:58 51°19.709 2°50.752 21.2001 0.062995 0.342921 0.566514
2009-06-23 07:40:03 51°19.723 2°50.741 21.1975 0.062995 0.342927 0.566514
2009-06-23 07:40:08 51°19.737 2°50.731 21.2068 0.062995 0.342927 0.566514
2009-06-23 07:40:12 51°19.748 2°50.722 21.203 0.062995 0.342933 0.566514
2009-06-23 07:40:18 51°19.764 2°50.709 21.1966 0.062995 0.342933 0.53169
2009-06-23 07:40:23 51°19.778 2°50.698 21.1999 0.062995 0.342939 0.566514
2009-06-23 07:40:28 51°19.792 2°50.688 21.2039 0.062995 0.342939 0.566514
2009-06-23 07:40:32 51°19.803 2°50.679 21.2125 0.062995 0.342945 0.53169
2009-06-23 07:40:38 51°19.819 2°50.667 21.2025 0.062995 0.342951 0.566514
2009-06-23 07:40:44 51°19.836 2°50.654 21.2121 0.062995 0.342951 0.566514
2009-06-23 07:40:48 51°19.847 2°50.645 21.2002 0.062995 0.342951 0.53169
2009-06-23 07:40:53 51°19.861 2°50.635 21.1985 0.062995 0.342957 0.53169
2009-06-23 07:40:58 51°19.875 2°50.624 21.207 0.062995 0.342963 0.566514
2009-06-23 07:41:03 51°19.889 2°50.614 21.2144 0.062995 0.342963 0.53169
2009-06-23 07:41:08 51°19.903 2°50.604 21.1935 0.062995 0.342969 0.53169
2009-06-23 07:41:13 51°19.917 2°50.594 21.2154 0.062995 0.342969 0.53169
2009-06-23 07:41:18 51°19.931 2°50.583 21.2199 0.062995 0.342975 0.53169
2009-06-23 07:41:23 51°19.945 2°50.573 21.2 0.062995 0.342981 0.566514
2009-06-23 07:41:28 51°19.959 2°50.562 21.2126 0.062995 0.342981 0.53169
2009-06-23 07:41:33 51°19.973 2°50.551 21.2122 0.062995 0.342987 0.53169
2009-06-23 07:41:38 51°19.987 2°50.541 21.2151 0.062995 0.342987 0.53169
2009-06-23 07:41:43 51°20.001 2°50.53 21.1969 0.062995 0.342993 0.53169
2009-06-23 07:41:48 51°20.015 2°50.519 21.226 0.062995 0.342999 0.53169
2009-06-23 07:41:53 51°20.029 2°50.508 21.1974 0.062995 0.342999 0.566514
2009-06-23 07:41:58 51°20.043 2°50.497 21.2254 0.062995 0.343005 0.566514
2009-06-23 07:42:03 51°20.057 2°50.485 21.2189 0.062995 0.343011 0.566514
2009-06-23 07:42:08 51°20.07 2°50.474 21.2026 0.062995 0.343011 0.566514
2009-06-23 07:42:13 51°20.084 2°50.463 21.2165 0.062995 0.343011 0.53169
2009-06-23 07:42:18 51°20.098 2°50.451 21.2212 0.062995 0.343017 0.53169
2009-06-23 07:42:23 51°20.112 2°50.44 21.2108 0.062995 0.343017 0.566514
2009-06-23 07:42:28 51°20.126 2°50.428 21.2152 0.062995 0.343029 0.53169
2009-06-23 07:42:33 51°20.14 2°50.416 21.2082 0.062995 0.343029 0.53169
2009-06-23 07:42:39 51°20.156 2°50.402 21.2302 0.062995 0.343035 0.53169
2009-06-23 07:42:43 51°20.167 2°50.393 21.2011 0.062995 0.343035 0.53169
2009-06-23 07:42:48 51°20.181 2°50.381 21.2257 0.062995 0.343041 0.53169
2009-06-23 07:42:53 51°20.195 2°50.369 21.2257 0.062995 0.343041 0.53169
2009-06-23 07:42:59 51°20.212 2°50.355 21.2333 0.062995 0.343047 0.566514
2009-06-23 07:43:03 51°20.223 2°50.346 21.2244 0.062995 0.343047 0.566514
2009-06-23 07:43:08 51°20.237 2°50.334 21.2125 0.062995 0.343059 0.53169
2009-06-23 07:43:13 51°20.251 2°50.322 21.2257 0.062995 0.343059 0.53169
2009-06-23 07:43:18 51°20.265 2°50.31 21.2251 0.062995 0.343059 0.53169
2009-06-23 07:43:23 51°20.279 2°50.298 21.2192 0.062995 0.343065 0.566514
2009-06-23 07:43:28 51°20.293 2°50.286 21.2297 0.062995 0.343065 0.566514
2009-06-23 07:43:33 51°20.307 2°50.274 21.2177 0.062995 0.343071 0.566514
2009-06-23 07:43:38 51°20.321 2°50.262 21.2284 0.062995 0.343071 0.566514
2009-06-23 07:43:43 51°20.335 2°50.251 21.232 0.062995 0.343071 0.566514
2009-06-23 07:43:48 51°20.349 2°50.24 21.2378 0.062995 0.343077 0.566514
2009-06-23 07:43:53 51°20.363 2°50.229 21.237 0.062995 0.343084 0.566514
2009-06-23 07:43:58 51°20.377 2°50.218 21.2297 0.062995 0.343084 0.566514
2009-06-23 07:44:03 51°20.391 2°50.207 21.2385 0.062995 0.34309 0.566514
2009-06-23 07:44:08 51°20.406 2°50.195 21.2337 0.062995 0.343096 0.566514
2009-06-23 07:44:13 51°20.42 2°50.184 21.2178 0.062995 0.343096 0.566514
2009-06-23 07:44:18 51°20.434 2°50.172 21.2381 0.062995 0.343096 0.566514
2009-06-23 07:44:23 51°20.448 2°50.161 21.2352 0.062995 0.343102 0.53169
2009-06-23 07:44:28 51°20.462 2°50.15 21.2263 0.062995 0.343102 0.566514
2009-06-23 07:44:33 51°20.477 2°50.139 21.2404 0.062995 0.343108 0.53169
2009-06-23 07:44:39 51°20.494 2°50.126 21.2433 0.062995 0.343114 0.53169
2009-06-23 07:44:43 51°20.505 2°50.118 21.2322 0.062995 0.343114 0.53169
2009-06-23 07:44:48 51°20.52 2°50.106 21.2444 0.062995 0.343114 0.566514
2009-06-23 07:44:53 51°20.534 2°50.096 21.2329 0.062995 0.34312 0.53169
2009-06-23 07:44:59 51°20.551 2°50.083 21.2489 0.062995 0.343126 0.53169
2009-06-23 07:45:03 51°20.562 2°50.074 21.2305 0.062995 0.343126 0.566514
2009-06-23 07:45:08 51°20.577 2°50.063 21.2404 0.062995 0.343126 0.566514
2009-06-23 07:45:13 51°20.591 2°50.052 21.2469 0.062995 0.343132 0.566514
2009-06-23 07:45:19 51°20.608 2°50.039 21.2475 0.062995 0.343132 0.566514
2009-06-23 07:45:23 51°20.62 2°50.031 21.2425 0.062995 0.343138 0.53169
2009-06-23 07:45:28 51°20.634 2°50.019 21.2426 0.062995 0.343138 0.53169
2009-06-23 07:45:33 51°20.649 2°50.008 21.2471 0.062995 0.343144 0.566514
2009-06-23 07:45:38 51°20.663 2°49.997 21.2463 0.062995 0.343144 0.566514
2009-06-23 07:45:43 51°20.677 2°49.986 21.2441 0.062995 0.34315 0.566514
2009-06-23 07:45:48 51°20.692 2°49.975 21.2487 0.062995 0.343156 0.53169
2009-06-23 07:45:53 51°20.706 2°49.964 21.2486 0.062995 0.343156 0.53169
2009-06-23 07:45:58 51°20.72 2°49.953 21.2414 0.062892 0.342584 0.53169
2009-06-23 07:46:03 51°20.734 2°49.942 21.2538 0.062892 0.34259 0.566514
2009-06-23 07:46:08 51°20.749 2°49.931 21.2392 0.062995 0.343168 0.566514
2009-06-23 07:46:13 51°20.763 2°49.919 21.2371 0.062995 0.343168 0.566514
2009-06-23 07:46:18 51°20.778 2°49.908 21.2443 0.062995 0.343168 0.566514
2009-06-23 07:46:23 51°20.792 2°49.897 21.2518 0.062995 0.343174 0.566514
2009-06-23 07:46:28 51°20.807 2°49.885 21.2379 0.062995 0.34318 0.566514
2009-06-23 07:46:33 51°20.821 2°49.874 21.2534 0.062892 0.342602 0.566514
2009-06-23 07:46:38 51°20.836 2°49.863 21.2585 0.062892 0.342602 0.566514
2009-06-23 07:46:43 51°20.85 2°49.852 21.2658 0.062995 0.343186 0.566514
2009-06-23 07:46:48 51°20.865 2°49.841 21.2532 0.062995 0.343192 0.53169
2009-06-23 07:46:54 51°20.882 2°49.827 21.2617 0.062995 0.343198 0.566514
2009-06-23 07:46:58 51°20.894 2°49.818 21.2616 0.062995 0.343198 0.566514
2009-06-23 07:47:04 51°20.911 2°49.805 21.2543 0.062995 0.343204 0.566514
2009-06-23 07:47:08 51°20.922 2°49.796 21.2676 0.062995 0.343204 0.566514
2009-06-23 07:47:13 51°20.937 2°49.785 21.2664 0.062995 0.343204 0.566514
2009-06-23 07:47:19 51°20.954 2°49.771 21.2593 0.062995 0.34321 0.566514
2009-06-23 07:47:23 51°20.966 2°49.762 21.2705 0.062995 0.343216 0.53169
2009-06-23 07:47:28 51°20.98 2°49.751 21.2548 0.062995 0.343216 0.53169
2009-06-23 07:47:33 51°20.995 2°49.74 21.2732 0.062995 0.343222 0.566514
2009-06-23 07:47:39 51°21.013 2°49.726 21.2683 0.062995 0.343222 0.53169
2009-06-23 07:47:43 51°21.024 2°49.718 21.2745 0.062995 0.343222 0.53169
2009-06-23 07:47:48 51°21.039 2°49.706 21.2552 0.062892 0.342657 0.566514
2009-06-23 07:47:53 51°21.053 2°49.695 21.2708 0.062892 0.342651 0.566514
2009-06-23 07:47:58 51°21.068 2°49.684 21.2701 0.062995 0.343234 0.53169
2009-06-23 07:48:03 51°21.082 2°49.673 21.2655 0.062995 0.343247 0.53169
2009-06-23 07:48:08 51°21.097 2°49.662 21.2733 0.062995 0.343247 0.566514
2009-06-23 07:48:13 51°21.111 2°49.65 21.2754 0.062995 0.343247 0.566514
2009-06-23 07:48:18 51°21.126 2°49.639 21.2666 0.062995 0.343253 0.566514
2009-06-23 07:48:23 51°21.141 2°49.628 21.2688 0.062892 0.342675 0.53169
2009-06-23 07:48:28 51°21.155 2°49.617 21.2749 0.062892 0.342681 0.566514
2009-06-23 07:48:33 51°21.17 2°49.605 21.2696 0.062995 0.343259 0.566514
2009-06-23 07:48:38 51°21.184 2°49.594 21.2852 0.062995 0.343259 0.566514
2009-06-23 07:48:43 51°21.199 2°49.583 21.2593 0.062892 0.342687 0.53169
2009-06-23 07:48:48 51°21.213 2°49.572 21.2793 0.062995 0.343271 0.53169
2009-06-23 07:48:53 51°21.228 2°49.561 21.2763 0.062892 0.342699 0.53169
2009-06-23 07:48:59 51°21.245 2°49.547 21.2766 0.062892 0.342705 0.53169
2009-06-23 07:49:03 51°21.257 2°49.538 21.2712 0.062995 0.343283 0.566514
2009-06-23 07:49:08 51°21.271 2°49.527 21.2781 0.062995 0.343283 0.566514
2009-06-23 07:49:13 51°21.286 2°49.516 21.2892 0.062892 0.342705 0.566514
2009-06-23 07:49:19 51°21.303 2°49.503 21.2737 0.062995 0.343295 0.566514
2009-06-23 07:49:23 51°21.315 2°49.494 21.287 0.062995 0.343295 0.566514
2009-06-23 07:49:28 51°21.329 2°49.483 21.2724 0.062995 0.343301 0.566514
2009-06-23 07:49:33 51°21.344 2°49.472 21.2862 0.062892 0.342729 0.566514
2009-06-23 07:49:39 51°21.362 2°49.459 21.2702 0.062892 0.342735 0.566514
2009-06-23 07:49:43 51°21.373 2°49.45 21.2792 0.062892 0.342735 0.566514
2009-06-23 07:49:48 51°21.388 2°49.44 21.2939 0.062995 0.343313 0.53169
2009-06-23 07:49:53 51°21.403 2°49.43 21.291 0.062892 0.342741 0.566514
2009-06-23 07:49:58 51°21.417 2°49.419 21.2921 0.062892 0.342747 0.566514
2009-06-23 07:50:03 51°21.432 2°49.409 21.2712 0.062892 0.342753 0.566514
2009-06-23 07:50:08 51°21.446 2°49.398 21.2897 0.062892 0.342753 0.566514
2009-06-23 07:50:12 51°21.458 2°49.389 21.2937 0.062892 0.342753 0.566514
2009-06-23 07:50:18 51°21.476 2°49.377 21.2958 0.062995 0.343337 0.566514
2009-06-23 07:50:23 51°21.49 2°49.366 21.2895 0.062892 0.342759 0.566514
2009-06-23 07:50:28 51°21.505 2°49.355 21.3027 0.062995 0.343343 0.566514
2009-06-23 07:50:32 51°21.516 2°49.346 21.2849 0.062892 0.342765 0.566514
2009-06-23 07:50:38 51°21.534 2°49.333 21.2916 0.062892 0.342765 0.566514
2009-06-23 07:50:43 51°21.549 2°49.322 21.2953 0.062995 0.343349 0.566514
2009-06-23 07:50:48 51°21.563 2°49.311 21.2992 0.062995 0.343349 0.566514
2009-06-23 07:50:54 51°21.581 2°49.299 21.3062 0.062892 0.342783 0.566514
2009-06-23 07:50:58 51°21.593 2°49.291 21.3039 0.062892 0.342783 0.566514
2009-06-23 07:51:03 51°21.608 2°49.28 21.2951 0.062995 0.343367 0.566514
2009-06-23 07:51:08 51°21.622 2°49.269 21.3001 0.062995 0.343367 0.566514
2009-06-23 07:51:12 51°21.634 2°49.261 21.2988 0.062892 0.342796 0.566514
2009-06-23 07:51:18 51°21.652 2°49.247 21.3003 0.062892 0.342796 0.53169
2009-06-23 07:51:23 51°21.667 2°49.236 21.3021 0.062995 0.343386 0.566514
2009-06-23 07:51:28 51°21.681 2°49.226 21.3069 0.062995 0.343386 0.566514
2009-06-23 07:51:33 51°21.696 2°49.215 21.3082 0.062995 0.343392 0.566514
2009-06-23 07:51:39 51°21.713 2°49.201 21.3009 0.062892 0.342814 0.566514
2009-06-23 07:51:43 51°21.725 2°49.193 21.3149 0.062892 0.342814 0.566514
2009-06-23 07:51:48 51°21.74 2°49.182 21.2951 0.062892 0.34282 0.566514
2009-06-23 07:51:53 51°21.755 2°49.17 21.3001 0.062995 0.343404 0.566514
2009-06-23 07:51:59 51°21.772 2°49.158 21.3102 0.062892 0.342826 0.566514
2009-06-23 07:52:03 51°21.784 2°49.149 21.2937 0.062995 0.343404 0.566514
2009-06-23 07:52:08 51°21.799 2°49.139 21.3168 0.062995 0.343404 0.566514
2009-06-23 07:52:13 51°21.814 2°49.128 21.3094 0.062892 0.342832 0.566514
2009-06-23 07:52:18 51°21.829 2°49.118 21.3204 0.062995 0.343416 0.566514
2009-06-23 07:52:23 51°21.844 2°49.108 21.3049 0.062995 0.343422 0.566514
2009-06-23 07:52:28 51°21.858 2°49.097 21.3096 0.062995 0.343422 0.566514
2009-06-23 07:52:33 51°21.873 2°49.086 21.3034 0.062995 0.343434 0.566514
2009-06-23 07:52:38 51°21.888 2°49.075 21.3102 0.062995 0.343434 0.566514
2009-06-23 07:52:43 51°21.903 2°49.064 21.3208 0.062995 0.343428 0.566514
2009-06-23 07:52:48 51°21.918 2°49.054 21.3121 0.062892 0.342856 0.566514
2009-06-23 07:52:52 51°21.93 2°49.045 21.3173 0.062892 0.342862 0.566514
2009-06-23 07:52:58 51°21.947 2°49.032 21.2983 0.062892 0.342868 0.566514
2009-06-23 07:53:03 51°21.962 2°49.021 21.3209 0.062995 0.343446 0.566514
2009-06-23 07:53:08 51°21.977 2°49.01 21.3161 0.062892 0.342874 0.53169
2009-06-23 07:53:13 51°21.992 2°48.999 21.3181 0.062892 0.342874 0.53169
2009-06-23 07:53:19 51°22.01 2°48.986 21.3059 0.062995 0.343452 0.53169
2009-06-23 07:53:23 51°22.022 2°48.977 21.3295 0.062995 0.343458 0.566514
2009-06-23 07:53:28 51°22.037 2°48.967 21.3051 0.062995 0.343458 0.566514
2009-06-23 07:53:33 51°22.052 2°48.956 21.3273 0.062892 0.342886 0.566514
2009-06-23 07:53:39 51°22.07 2°48.944 21.3333 0.062892 0.342886 0.566514
2009-06-23 07:53:43 51°22.082 2°48.936 21.3124 0.062892 0.342886 0.566514
2009-06-23 07:53:48 51°22.097 2°48.925 21.3226 0.062995 0.343476 0.566514
2009-06-23 07:53:53 51°22.111 2°48.914 21.3316 0.062995 0.343476 0.566514
2009-06-23 07:53:59 51°22.129 2°48.902 21.3301 0.062892 0.342898 0.53169
2009-06-23 07:54:03 51°22.142 2°48.894 21.3251 0.062892 0.342904 0.566514
2009-06-23 07:54:08 51°22.156 2°48.883 21.3191 0.062892 0.342904 0.566514
2009-06-23 07:54:13 51°22.171 2°48.872 21.3275 0.062995 0.343488 0.53169
2009-06-23 07:54:18 51°22.186 2°48.861 21.3282 0.062995 0.343495 0.566514
2009-06-23 07:54:23 51°22.201 2°48.85 21.3241 0.062995 0.343495 0.566514
2009-06-23 07:54:28 51°22.216 2°48.84 21.3189 0.062892 0.342916 0.53169
2009-06-23 07:54:32 51°22.227 2°48.832 21.3258 0.062995 0.343495 0.566514
2009-06-23 07:54:38 51°22.245 2°48.821 21.3353 0.062995 0.343495 0.566514
2009-06-23 07:54:43 51°22.26 2°48.811 21.3195 0.062995 0.343501 0.566514
2009-06-23 07:54:48 51°22.275 2°48.802 21.333 0.062995 0.343501 0.566514
2009-06-23 07:54:53 51°22.289 2°48.793 21.3197 0.062995 0.343513 0.566514
2009-06-23 07:54:58 51°22.303 2°48.784 21.3339 0.062995 0.343513 0.566514
2009-06-23 07:55:03 51°22.318 2°48.776 21.3378 0.062995 0.343519 0.566514
2009-06-23 07:55:08 51°22.332 2°48.767 21.3324 0.062995 0.343525 0.566514
2009-06-23 07:55:13 51°22.347 2°48.757 21.3313 0.062995 0.343525 0.566514
2009-06-23 07:55:18 51°22.361 2°48.748 21.3203 0.062995 0.343525 0.566514
2009-06-23 07:55:23 51°22.375 2°48.738 21.3293 0.062995 0.343531 0.566514
2009-06-23 07:55:28 51°22.389 2°48.728 21.3301 0.062995 0.343531 0.566514
2009-06-23 07:55:33 51°22.403 2°48.72 21.3374 0.062995 0.343537 0.566514
2009-06-23 07:55:38 51°22.417 2°48.711 21.332 0.062995 0.343537 0.566514
2009-06-23 07:55:43 51°22.431 2°48.701 21.344 0.062995 0.343537 0.53169
2009-06-23 07:55:48 51°22.445 2°48.692 21.3285 0.062995 0.343543 0.566514
2009-06-23 07:55:53 51°22.459 2°48.683 21.3298 0.062892 0.342965 0.566514
2009-06-23 07:55:58 51°22.473 2°48.674 21.3394 0.062995 0.343543 0.566514
2009-06-23 07:56:03 51°22.487 2°48.665 21.3377 0.062995 0.343555 0.53169
2009-06-23 07:56:08 51°22.501 2°48.656 21.3406 0.062995 0.343555 0.53169
2009-06-23 07:56:13 51°22.515 2°48.646 21.3522 0.062995 0.343549 0.566514
2009-06-23 07:56:18 51°22.529 2°48.638 21.3168 0.062995 0.343561 0.566514
2009-06-23 07:56:23 51°22.542 2°48.629 21.342 0.062995 0.343555 0.53169
2009-06-23 07:56:28 51°22.556 2°48.621 21.3447 0.062995 0.343567 0.566514
2009-06-23 07:56:33 51°22.57 2°48.612 21.3544 0.062995 0.343567 0.53169
2009-06-23 07:56:39 51°22.587 2°48.601 21.345 0.062995 0.343567 0.53169
2009-06-23 07:56:43 51°22.598 2°48.594 21.3481 0.062995 0.343567 0.53169
2009-06-23 07:56:48 51°22.612 2°48.586 21.339 0.062995 0.343573 0.566514
2009-06-23 07:56:53 51°22.626 2°48.577 21.3568 0.062995 0.343579 0.566514
2009-06-23 07:56:58 51°22.639 2°48.568 21.3574 0.062995 0.343579 0.566514
2009-06-23 07:57:03 51°22.653 2°48.56 21.3425 0.062995 0.343579 0.566514
2009-06-23 07:57:08 51°22.667 2°48.55 21.3423 0.062892 0.343007 0.53169
2009-06-23 07:57:13 51°22.681 2°48.541 21.353 0.062892 0.343007 0.53169
2009-06-23 07:57:18 51°22.695 2°48.533 21.3419 0.062995 0.343585 0.53169
2009-06-23 07:57:23 51°22.709 2°48.524 21.3574 0.062892 0.343013 0.566514
2009-06-23 07:57:28 51°22.723 2°48.515 21.3551 0.062995 0.343591 0.53169
2009-06-23 07:57:33 51°22.737 2°48.506 21.353 0.062995 0.343603 0.566514
2009-06-23 07:57:38 51°22.75 2°48.496 21.3476 0.062995 0.343603 0.566514
2009-06-23 07:57:43 51°22.764 2°48.486 21.3512 0.062995 0.343603 0.566514
2009-06-23 07:57:48 51°22.777 2°48.477 21.365 0.062995 0.343603 0.566514
2009-06-23 07:57:53 51°22.791 2°48.468 21.3638 0.062995 0.343603 0.566514
2009-06-23 07:57:58 51°22.805 2°48.459 21.3503 0.062995 0.343616 0.566514
2009-06-23 07:58:03 51°22.818 2°48.449 21.3686 0.062995 0.343622 0.53169
2009-06-23 07:58:08 51°22.832 2°48.439 21.3734 0.062995 0.343622 0.53169
2009-06-23 07:58:13 51°22.845 2°48.43 21.3623 0.062995 0.343622 0.53169
2009-06-23 07:58:19 51°22.861 2°48.417 21.3622 0.062995 0.343622 0.566514
2009-06-23 07:58:23 51°22.872 2°48.409 21.3572 0.062995 0.343628 0.53169
2009-06-23 07:58:28 51°22.886 2°48.399 21.3577 0.062995 0.343628 0.566514
2009-06-23 07:58:33 51°22.899 2°48.389 21.3734 0.062995 0.343634 0.53169
2009-06-23 07:58:39 51°22.916 2°48.376 21.3758 0.062995 0.34364 0.566514
2009-06-23 07:58:43 51°22.926 2°48.368 21.3779 0.062995 0.34364 0.566514
2009-06-23 07:58:48 51°22.94 2°48.357 21.3679 0.062995 0.34364 0.566514
2009-06-23 07:58:53 51°22.953 2°48.346 21.3478 0.062995 0.343646 0.53169
2009-06-23 07:58:59 51°22.969 2°48.333 21.3711 0.062995 0.343646 0.566514
2009-06-23 07:59:03 51°22.98 2°48.325 21.3776 0.062995 0.343646 0.566514
2009-06-23 07:59:08 51°22.994 2°48.315 21.363 0.062995 0.343652 0.566514
2009-06-23 07:59:13 51°23.008 2°48.305 21.3811 0.062995 0.343652 0.566514
2009-06-23 07:59:18 51°23.021 2°48.295 21.3591 0.062995 0.343658 0.53169
2009-06-23 07:59:23 51°23.035 2°48.284 21.3788 0.062995 0.343658 0.566514
2009-06-23 07:59:28 51°23.048 2°48.273 21.3651 0.062995 0.343664 0.566514
2009-06-23 07:59:33 51°23.062 2°48.262 21.3723 0.062995 0.343664 0.566514
2009-06-23 07:59:38 51°23.076 2°48.253 21.3586 0.062995 0.343664 0.566514
2009-06-23 07:59:43 51°23.089 2°48.242 21.3847 0.062995 0.34367 0.53169
2009-06-23 07:59:48 51°23.103 2°48.233 21.3821 0.062995 0.34367 0.566514
2009-06-23 07:59:53 51°23.117 2°48.222 21.3682 0.062995 0.343682 0.53169
2009-06-23 07:59:59 51°23.133 2°48.21 21.3716 0.062995 0.343682 0.566514
2009-06-23 08:00:03 51°23.144 2°48.202 21.3851 0.062995 0.343682 0.53169
2009-06-23 08:00:08 51°23.158 2°48.192 21.3854 0.062995 0.343688 0.566514
2009-06-23 08:00:13 51°23.172 2°48.182 21.3754 0.062995 0.343688 0.566514
2009-06-23 08:00:19 51°23.188 2°48.169 21.3884 0.062995 0.343688 0.566514
2009-06-23 08:00:23 51°23.199 2°48.161 21.3789 0.062995 0.343694 0.566514
2009-06-23 08:00:28 51°23.213 2°48.15 21.3755 0.062995 0.3437 0.566514
2009-06-23 08:00:33 51°23.227 2°48.14 21.3855 0.062995 0.3437 0.566514
2009-06-23 08:00:39 51°23.244 2°48.126 21.3688 0.062995 0.3437 0.53169
2009-06-23 08:00:43 51°23.255 2°48.118 21.3892 0.062995 0.3437 0.53169
2009-06-23 08:00:48 51°23.268 2°48.108 21.383 0.062995 0.343707 0.53169
2009-06-23 08:00:53 51°23.282 2°48.098 21.3983 0.062995 0.343707 0.53169
2009-06-23 08:00:59 51°23.299 2°48.086 21.3893 0.062995 0.343713 0.566514
2009-06-23 08:01:03 51°23.31 2°48.078 21.3889 0.062995 0.343719 0.566514
2009-06-23 08:01:08 51°23.324 2°48.067 21.3972 0.062995 0.343719 0.566514
2009-06-23 08:01:13 51°23.338 2°48.056 21.3831 0.062995 0.343725 0.53169
2009-06-23 08:01:18 51°23.352 2°48.046 21.3972 0.062995 0.343731 0.566514
2009-06-23 08:01:23 51°23.366 2°48.035 21.3911 0.062995 0.343731 0.53169
2009-06-23 08:01:28 51°23.38 2°48.024 21.3857 0.062995 0.343737 0.566514
2009-06-23 08:01:33 51°23.393 2°48.013 21.398 0.062995 0.343737 0.53169
2009-06-23 08:01:38 51°23.407 2°48.003 21.3807 0.062995 0.343737 0.53169
2009-06-23 08:01:43 51°23.421 2°47.992 21.4031 0.062995 0.343743 0.566514
2009-06-23 08:01:48 51°23.435 2°47.981 21.406 0.062995 0.343743 0.566514
2009-06-23 08:01:53 51°23.449 2°47.971 21.3937 0.062995 0.343749 0.53169
2009-06-23 08:01:58 51°23.463 2°47.96 21.3991 0.062995 0.343755 0.566514
2009-06-23 08:02:03 51°23.477 2°47.949 21.3919 0.062995 0.343755 0.53169
2009-06-23 08:02:08 51°23.49 2°47.937 21.394 0.062995 0.343761 0.53169
2009-06-23 08:02:13 51°23.504 2°47.926 21.3954 0.062995 0.343761 0.53169
2009-06-23 08:02:18 51°23.518 2°47.915 21.4119 0.062995 0.343761 0.53169
2009-06-23 08:02:23 51°23.532 2°47.905 21.3997 0.062995 0.343767 0.566514
2009-06-23 08:02:28 51°23.546 2°47.894 21.4077 0.062995 0.343773 0.566514
2009-06-23 08:02:33 51°23.56 2°47.883 21.3936 0.062995 0.343773 0.566514
2009-06-23 08:02:38 51°23.574 2°47.872 21.404 0.062995 0.343785 0.566514
2009-06-23 08:02:43 51°23.588 2°47.861 21.4036 0.062995 0.343785 0.566514
2009-06-23 08:02:48 51°23.602 2°47.85 21.4112 0.062995 0.343785 0.566514
2009-06-23 08:02:53 51°23.616 2°47.839 21.4137 0.062995 0.343785 0.566514
2009-06-23 08:02:58 51°23.63 2°47.829 21.4173 0.062995 0.343791 0.566514
2009-06-23 08:03:03 51°23.644 2°47.818 21.4125 0.062995 0.343797 0.566514
2009-06-23 08:03:08 51°23.658 2°47.807 21.4125 0.062995 0.343797 0.566514
2009-06-23 08:03:13 51°23.672 2°47.796 21.4119 0.062995 0.343804 0.566514
2009-06-23 08:03:19 51°23.688 2°47.783 21.4204 0.062995 0.343804 0.566514
2009-06-23 08:03:23 51°23.7 2°47.775 21.4156 0.062995 0.343804 0.566514
2009-06-23 08:03:28 51°23.714 2°47.764 21.4128 0.062995 0.343816 0.566514
2009-06-23 08:03:33 51°23.728 2°47.753 21.412 0.062995 0.34381 0.566514
2009-06-23 08:03:39 51°23.745 2°47.74 21.4116 0.062995 0.343816 0.566514
2009-06-23 08:03:43 51°23.756 2°47.732 21.4032 0.062995 0.343816 0.566514
2009-06-23 08:03:48 51°23.77 2°47.721 21.4194 0.062995 0.343822 0.53169
2009-06-23 08:03:53 51°23.784 2°47.711 21.4117 0.062995 0.343822 0.566514
2009-06-23 08:03:58 51°23.798 2°47.701 21.4216 0.062995 0.343834 0.53169
2009-06-23 08:04:03 51°23.812 2°47.69 21.4196 0.062995 0.343834 0.566514
2009-06-23 08:04:08 51°23.826 2°47.679 21.4038 0.062995 0.34384 0.566514
2009-06-23 08:04:13 51°23.84 2°47.668 21.4224 0.062995 0.34384 0.566514
2009-06-23 08:04:18 51°23.854 2°47.658 21.4213 0.062995 0.34384 0.53169
2009-06-23 08:04:23 51°23.868 2°47.647 21.4304 0.062995 0.343846 0.53169
2009-06-23 08:04:28 51°23.882 2°47.637 21.4217 0.062995 0.343852 0.53169
2009-06-23 08:04:33 51°23.896 2°47.626 21.4278 0.062995 0.343852 0.53169
2009-06-23 08:04:38 51°23.911 2°47.616 21.4255 0.062995 0.343852 0.53169
2009-06-23 08:04:43 51°23.925 2°47.605 21.4325 0.062995 0.343858 0.53169
2009-06-23 08:04:48 51°23.939 2°47.595 21.4362 0.062995 0.343858 0.566514
2009-06-23 08:04:53 51°23.953 2°47.585 21.4243 0.062995 0.343864 0.566514
2009-06-23 08:04:59 51°23.97 2°47.573 21.4403 0.062995 0.34387 0.566514
2009-06-23 08:05:03 51°23.982 2°47.565 21.4239 0.062995 0.343876 0.53169
2009-06-23 08:05:08 51°23.996 2°47.554 21.4371 0.062995 0.343876 0.53169
2009-06-23 08:05:13 51°24.01 2°47.543 21.4317 0.062995 0.343876 0.566514
2009-06-23 08:05:19 51°24.027 2°47.531 21.4247 0.062995 0.343882 0.566514
2009-06-23 08:05:23 51°24.038 2°47.522 21.4373 0.062995 0.343882 0.53169
2009-06-23 08:05:28 51°24.052 2°47.512 21.4286 0.062995 0.343888 0.53169
2009-06-23 08:05:33 51°24.066 2°47.502 21.4259 0.062995 0.343895 0.566514
2009-06-23 08:05:39 51°24.083 2°47.489 21.4367 0.062995 0.343895 0.53169
2009-06-23 08:05:43 51°24.094 2°47.481 21.436 0.062995 0.343895 0.53169
2009-06-23 08:05:48 51°24.108 2°47.47 21.4432 0.062995 0.343907 0.566514
2009-06-23 08:05:53 51°24.123 2°47.459 21.4384 0.062995 0.343907 0.566514
2009-06-23 08:05:58 51°24.137 2°47.448 21.4343 0.062995 0.343913 0.566514
2009-06-23 08:06:03 51°24.151 2°47.437 21.4332 0.062995 0.343913 0.53169
2009-06-23 08:06:08 51°24.165 2°47.426 21.4395 0.062995 0.343919 0.566514
2009-06-23 08:06:13 51°24.179 2°47.415 21.4441 0.062995 0.343919 0.566514
2009-06-23 08:06:18 51°24.193 2°47.404 21.4372 0.062995 0.343919 0.53169
2009-06-23 08:06:23 51°24.207 2°47.394 21.4336 0.062995 0.343925 0.53169
2009-06-23 08:06:28 51°24.221 2°47.382 21.4473 0.062995 0.343931 0.566514
2009-06-23 08:06:33 51°24.235 2°47.372 21.4398 0.062995 0.343931 0.53169
2009-06-23 08:06:39 51°24.252 2°47.359 21.4492 0.062995 0.343931 0.53169
2009-06-23 08:06:43 51°24.264 2°47.35 21.4443 0.062995 0.343937 0.53169
2009-06-23 08:06:48 51°24.278 2°47.339 21.4437 0.062995 0.343943 0.53169
2009-06-23 08:06:53 51°24.292 2°47.328 21.4561 0.062995 0.343949 0.566514
2009-06-23 08:06:59 51°24.309 2°47.315 21.4507 0.062995 0.343949 0.53169
2009-06-23 08:07:03 51°24.32 2°47.306 21.4273 0.062995 0.343955 0.566514
2009-06-23 08:07:08 51°24.334 2°47.295 21.4536 0.062995 0.343955 0.566514
2009-06-23 08:07:13 51°24.348 2°47.284 21.4524 0.062995 0.343955 0.566514
2009-06-23 08:07:19 51°24.366 2°47.272 21.4478 0.062995 0.343961 0.53169
2009-06-23 08:07:23 51°24.377 2°47.263 21.4594 0.062995 0.343967 0.53169
2009-06-23 08:07:28 51°24.39 2°47.253 21.446 0.062995 0.343973 0.566514
2009-06-23 08:07:33 51°24.404 2°47.242 21.4525 0.062995 0.34398 0.53169
2009-06-23 08:07:39 51°24.421 2°47.229 21.4527 0.062995 0.343986 0.566514
2009-06-23 08:07:43 51°24.432 2°47.22 21.4593 0.062995 0.343986 0.566514
2009-06-23 08:07:48 51°24.446 2°47.21 21.4554 0.062995 0.343986 0.566514
2009-06-23 08:07:53 51°24.46 2°47.199 21.4451 0.062995 0.343992 0.53169
2009-06-23 08:07:58 51°24.474 2°47.189 21.472 0.062995 0.343998 0.53169
2009-06-23 08:08:03 51°24.489 2°47.178 21.4597 0.062995 0.344004 0.53169
2009-06-23 08:08:08 51°24.503 2°47.167 21.4615 0.062995 0.344004 0.53169
2009-06-23 08:08:12 51°24.514 2°47.159 21.4683 0.062995 0.344004 0.53169
2009-06-23 08:08:18 51°24.531 2°47.145 21.4686 0.062995 0.34401 0.53169
2009-06-23 08:08:23 51°24.546 2°47.135 21.441 0.062995 0.344022 0.53169
2009-06-23 08:08:28 51°24.56 2°47.124 21.4674 0.062995 0.344022 0.53169
2009-06-23 08:08:33 51°24.575 2°47.114 21.4684 0.062995 0.344028 0.53169
2009-06-23 08:08:38 51°24.589 2°47.103 21.4711 0.062995 0.344028 0.53169
2009-06-23 08:08:43 51°24.604 2°47.093 21.4601 0.062995 0.344034 0.53169
2009-06-23 08:08:48 51°24.618 2°47.082 21.4676 0.062995 0.34404 0.53169
2009-06-23 08:08:53 51°24.633 2°47.072 21.4606 0.062995 0.344046 0.566514
2009-06-23 08:08:58 51°24.647 2°47.061 21.4587 0.062995 0.344052 0.53169
2009-06-23 08:09:03 51°24.662 2°47.049 21.4756 0.062995 0.344058 0.53169
2009-06-23 08:09:08 51°24.676 2°47.038 21.4772 0.062995 0.344065 0.566514
2009-06-23 08:09:13 51°24.69 2°47.027 21.4686 0.062995 0.344065 0.566514
2009-06-23 08:09:18 51°24.705 2°47.015 21.4754 0.062995 0.344071 0.53169
2009-06-23 08:09:23 51°24.719 2°47.004 21.4565 0.062995 0.344077 0.53169
2009-06-23 08:09:28 51°24.734 2°46.992 21.4813 0.062995 0.344077 0.53169
2009-06-23 08:09:33 51°24.748 2°46.981 21.4535 0.062995 0.344083 0.566514
2009-06-23 08:09:38 51°24.762 2°46.969 21.4806 0.062995 0.344089 0.53169
2009-06-23 08:09:43 51°24.777 2°46.958 21.475 0.062995 0.344089 0.53169
2009-06-23 08:09:48 51°24.791 2°46.947 21.4655 0.062995 0.344095 0.53169
2009-06-23 08:09:54 51°24.808 2°46.934 21.4811 0.062995 0.344095 0.53169
2009-06-23 08:09:58 51°24.82 2°46.925 21.4866 0.062995 0.344101 0.53169
2009-06-23 08:10:03 51°24.835 2°46.914 21.4715 0.062995 0.344113 0.53169
2009-06-23 08:10:08 51°24.849 2°46.903 21.4814 0.062995 0.344113 0.53169
2009-06-23 08:10:13 51°24.864 2°46.892 21.4819 0.062995 0.344113 0.53169
2009-06-23 08:10:19 51°24.881 2°46.879 21.4716 0.062995 0.344119 0.53169
2009-06-23 08:10:23 51°24.893 2°46.869 21.4818 0.062995 0.344125 0.53169
2009-06-23 08:10:28 51°24.907 2°46.859 21.4778 0.062995 0.344131 0.53169
2009-06-23 08:10:33 51°24.922 2°46.848 21.481 0.062995 0.344131 0.53169
2009-06-23 08:10:38 51°24.936 2°46.838 21.4829 0.062995 0.344131 0.53169
2009-06-23 08:10:43 51°24.951 2°46.827 21.4809 0.062995 0.344137 0.566514
2009-06-23 08:10:48 51°24.966 2°46.817 21.4882 0.062995 0.34415 0.53169
2009-06-23 08:10:53 51°24.98 2°46.806 21.4941 0.062995 0.344156 0.53169
2009-06-23 08:10:58 51°24.994 2°46.796 21.4817 0.062995 0.344162 0.566514
2009-06-23 08:11:03 51°25.009 2°46.786 21.4843 0.062995 0.344168 0.566514
2009-06-23 08:11:08 51°25.023 2°46.775 21.4847 0.062995 0.344168 0.566514
2009-06-23 08:11:13 51°25.038 2°46.764 21.4954 0.062995 0.344168 0.566514
2009-06-23 08:11:18 51°25.052 2°46.754 21.4927 0.062995 0.344174 0.53169
2009-06-23 08:11:23 51°25.066 2°46.743 21.4974 0.062995 0.344186 0.566514
2009-06-23 08:11:28 51°25.08 2°46.733 21.4898 0.062995 0.344192 0.53169
2009-06-23 08:11:32 51°25.092 2°46.724 21.4976 0.062995 0.344192 0.53169
2009-06-23 08:11:38 51°25.109 2°46.712 21.4869 0.062995 0.344204 0.53169
2009-06-23 08:11:43 51°25.124 2°46.701 21.502 0.062995 0.344204 0.53169
2009-06-23 08:11:48 51°25.138 2°46.691 21.4916 0.062995 0.34421 0.53169
2009-06-23 08:11:53 51°25.152 2°46.68 21.4821 0.062995 0.344217 0.53169
2009-06-23 08:11:59 51°25.17 2°46.667 21.495 0.062995 0.344223 0.53169
2009-06-23 08:12:03 51°25.181 2°46.659 21.5005 0.062995 0.344229 0.566514
2009-06-23 08:12:08 51°25.195 2°46.648 21.4869 0.062995 0.344229 0.566514
2009-06-23 08:12:13 51°25.209 2°46.637 21.5036 0.062995 0.344235 0.53169
2009-06-23 08:12:19 51°25.226 2°46.625 21.4809 0.062995 0.344241 0.566514
2009-06-23 08:12:23 51°25.238 2°46.616 21.4864 0.062995 0.344241 0.53169
2009-06-23 08:12:28 51°25.252 2°46.606 21.4896 0.062995 0.344253 0.53169
2009-06-23 08:12:33 51°25.266 2°46.594 21.4915 0.062995 0.344259 0.53169
2009-06-23 08:12:39 51°25.283 2°46.581 21.5025 0.062995 0.344259 0.566514
2009-06-23 08:12:43 51°25.294 2°46.572 21.4864 0.062995 0.344259 0.566514
2009-06-23 08:12:48 51°25.309 2°46.562 21.5002 0.062995 0.344265 0.566514
2009-06-23 08:12:53 51°25.323 2°46.551 21.496 0.062995 0.344271 0.53169
2009-06-23 08:12:58 51°25.337 2°46.54 21.5071 0.062995 0.344277 0.53169
2009-06-23 08:13:03 51°25.352 2°46.53 21.5057 0.062995 0.344283 0.53169
2009-06-23 08:13:08 51°25.366 2°46.519 21.5186 0.062995 0.344296 0.53169
2009-06-23 08:13:13 51°25.38 2°46.509 21.4991 0.062995 0.344296 0.53169
2009-06-23 08:13:18 51°25.394 2°46.498 21.5184 0.062995 0.344296 0.53169